KLM702 SAEZ-EHAM

Flight info

Callsign KLM702
Flight time 12h 49m
Altitude 31000
Route DORVO1E DORVO UN857 ITBEB/N0497F330 UM540 ANISE UZ23 ILPIR UZ72 EDNES UN866 KIMUR/N0494F350 UN866 DEKON/N0489F360 UN866 AMDOL/N0489F350 UN866 IRANI/N0483F370 UN866 TENPA N866 GOMER/N0476F380 N866 KONBA DCT BEXAL DCT PINEK DCT LOTEE DCT AZFIC DCT ERIGA DCT GODIX DCT PODEM DCT ADUTO N873 FERDI/N0419F240 Y18 DENUT
Aircraft B772/H-SDE2E3FGHIJ3J5P2RWXYZ/LB1D1

Departure

Time 2026-04-29 18:18
Airport Ezeiza International Airport - Ministro Pistarini (SAEZ)

Arrival

Time 2026-04-30 07:08
Airport Amsterdam Airport Schiphol (EHAM)
Time Latitude Longitude Altitude Speed Heading
2026-04-29 16:26 -34.81684 -58.54162 79 ft 0 kts 12°
2026-04-29 18:05 -34.81700 -58.54167 85 ft 4 kts 13°
2026-04-29 18:06 -34.81726 -58.54174 84 ft 4 kts 14°
2026-04-29 18:06 -34.81751 -58.54185 85 ft 4 kts 31°
2026-04-29 18:06 -34.81771 -58.54205 79 ft 4 kts 58°
2026-04-29 18:06 -34.81779 -58.54233 79 ft 2 kts 95°
2026-04-29 18:07 -34.81779 -58.54236 79 ft 0 kts 96°
2026-04-29 18:10 -34.81779 -58.54231 79 ft 3 kts 96°
2026-04-29 18:10 -34.81785 -58.54177 81 ft 8 kts 98°
2026-04-29 18:11 -34.81792 -58.54111 83 ft 8 kts 95°
2026-04-29 18:11 -34.81787 -58.54046 82 ft 8 kts 76°
2026-04-29 18:11 -34.81765 -58.53985 85 ft 8 kts 61°
2026-04-29 18:11 -34.81738 -58.53928 84 ft 8 kts 60°
2026-04-29 18:12 -34.81711 -58.53870 85 ft 8 kts 62°
2026-04-29 18:12 -34.81701 -58.53804 82 ft 9 kts 95°
2026-04-29 18:12 -34.81734 -58.53731 84 ft 10 kts 141°
2026-04-29 18:12 -34.81798 -58.53690 84 ft 10 kts 154°
2026-04-29 18:13 -34.81863 -58.53651 84 ft 10 kts 150°
2026-04-29 18:13 -34.81911 -58.53587 81 ft 10 kts 114°
2026-04-29 18:13 -34.81930 -58.53503 81 ft 11 kts 103°
2026-04-29 18:13 -34.81949 -58.53405 82 ft 15 kts 104°
2026-04-29 18:14 -34.81979 -58.53255 84 ft 20 kts 103°
2026-04-29 18:14 -34.82012 -58.53091 85 ft 20 kts 104°
2026-04-29 18:14 -34.82044 -58.52930 87 ft 20 kts 104°
2026-04-29 18:14 -34.82077 -58.52767 84 ft 20 kts 103°
2026-04-29 18:15 -34.82110 -58.52604 84 ft 20 kts 103°
2026-04-29 18:15 -34.82142 -58.52441 82 ft 20 kts 103°
2026-04-29 18:15 -34.82173 -58.52279 80 ft 20 kts 103°
2026-04-29 18:15 -34.82206 -58.52117 80 ft 20 kts 104°
2026-04-29 18:16 -34.82239 -58.51954 84 ft 20 kts 104°
2026-04-29 18:16 -34.82264 -58.51829 80 ft 10 kts 104°
2026-04-29 18:16 -34.82318 -58.51787 90 ft 10 kts 186°
2026-04-29 18:16 -34.82388 -58.51804 83 ft 10 kts 192°
2026-04-29 18:17 -34.82458 -58.51823 87 ft 10 kts 193°
2026-04-29 18:17 -34.82518 -58.51846 88 ft 8 kts 218°
2026-04-29 18:17 -34.82522 -58.51893 91 ft 0 kts 281°
2026-04-29 18:17 -34.82515 -58.51938 89 ft 27 kts 282°
2026-04-29 18:18 -34.82420 -58.52472 86 ft 100 kts 282°
2026-04-29 18:18 -34.82225 -58.53567 92 ft 161 kts 282°
2026-04-29 18:18 -34.81953 -58.55020 490 ft 178 kts 281°
2026-04-29 18:18 -34.81687 -58.56486 1326 ft 179 kts 281°
2026-04-29 18:19 -34.81439 -58.57993 1878 ft 189 kts 281°
2026-04-29 18:19 -34.81259 -58.59071 2009 ft 202 kts 281°
2026-04-29 18:19 -34.81290 -58.61418 2164 ft 224 kts 246°
2026-04-29 18:19 -34.81875 -58.62483 2317 ft 232 kts 229°
2026-04-29 18:20 -34.83036 -58.63925 2829 ft 235 kts 228°
2026-04-29 18:20 -34.84151 -58.65335 3450 ft 237 kts 230°
2026-04-29 18:20 -34.85294 -58.66836 3878 ft 245 kts 230°
2026-04-29 18:20 -34.86459 -58.68378 4446 ft 248 kts 230°
2026-04-29 18:21 -34.87667 -58.69857 5030 ft 247 kts 218°
2026-04-29 18:21 -34.89286 -58.70655 5532 ft 260 kts 191°
2026-04-29 18:21 -34.91104 -58.70572 6139 ft 265 kts 173°
2026-04-29 18:21 -34.92819 -58.69616 6585 ft 280 kts 151°
2026-04-29 18:22 -34.94329 -58.68031 7020 ft 292 kts 139°
2026-04-29 18:22 -34.95606 -58.66115 7541 ft 298 kts 131°
2026-04-29 18:22 -34.96748 -58.63965 8042 ft 304 kts 126°
2026-04-29 18:22 -34.97730 -58.61633 8543 ft 311 kts 118°
2026-04-29 18:23 -34.98478 -58.59126 9037 ft 318 kts 110°
2026-04-29 18:23 -34.98958 -58.56494 9535 ft 325 kts 102°
2026-04-29 18:23 -34.99152 -58.53707 9989 ft 332 kts 93°
2026-04-29 18:23 -34.99078 -58.50843 10203 ft 345 kts 90°
2026-04-29 18:24 -34.98993 -58.47844 10335 ft 361 kts 91°
2026-04-29 18:24 -34.98924 -58.44709 10453 ft 378 kts 90°
2026-04-29 18:24 -34.98854 -58.41424 10582 ft 395 kts 90°
2026-04-29 18:24 -34.98779 -58.37998 10801 ft 410 kts 90°
2026-04-29 18:25 -34.98698 -58.34482 11194 ft 419 kts 90°
2026-04-29 18:25 -34.98615 -58.30951 11707 ft 424 kts 90°
2026-04-29 18:25 -34.98528 -58.27338 12312 ft 426 kts 90°
2026-04-29 18:25 -34.98441 -58.23709 12933 ft 428 kts 90°
2026-04-29 18:26 -34.98352 -58.20060 13528 ft 431 kts 90°
2026-04-29 18:26 -34.98262 -58.16392 14032 ft 435 kts 90°
2026-04-29 18:26 -34.98171 -58.12732 14489 ft 438 kts 90°
2026-04-29 18:26 -34.98079 -58.09001 14949 ft 442 kts 90°
2026-04-29 18:27 -34.97983 -58.05234 15420 ft 445 kts 90°
2026-04-29 18:27 -34.97887 -58.01449 15882 ft 448 kts 89°
2026-04-29 18:27 -34.97788 -57.97627 16323 ft 452 kts 89°
2026-04-29 18:27 -34.97680 -57.93786 16755 ft 452 kts 87°
2026-04-29 18:28 -34.97103 -57.90006 16959 ft 458 kts 68°
2026-04-29 18:28 -34.95587 -57.86609 17292 ft 457 kts 49°
2026-04-29 18:28 -34.93523 -57.83689 17629 ft 455 kts 45°
2026-04-29 18:28 -34.91471 -57.80788 17968 ft 460 kts 46°
2026-04-29 18:29 -34.89398 -57.77790 18404 ft 462 kts 47°
2026-04-29 18:29 -34.88033 -57.75794 18672 ft 463 kts 47°
2026-04-29 18:29 -34.85274 -57.71741 19194 ft 465 kts 47°
2026-04-29 18:29 -34.83199 -57.68691 19554 ft 468 kts 47°
2026-04-29 18:30 -34.81121 -57.65638 19897 ft 470 kts 46°
2026-04-29 18:30 -34.79026 -57.62568 20234 ft 473 kts 46°
2026-04-29 18:30 -34.76917 -57.59478 20578 ft 475 kts 46°
2026-04-29 18:30 -34.74826 -57.56417 20924 ft 477 kts 46°
2026-04-29 18:31 -34.72694 -57.53301 21269 ft 479 kts 46°
2026-04-29 18:31 -34.70551 -57.50173 21619 ft 481 kts 46°
2026-04-29 18:31 -34.68398 -57.47042 21958 ft 483 kts 46°
2026-04-29 18:31 -34.66240 -57.43909 22291 ft 486 kts 46°
2026-04-29 18:32 -34.64062 -57.40750 22630 ft 488 kts 46°
2026-04-29 18:32 -34.59702 -57.34429 23187 ft 493 kts 45°
2026-04-29 18:32 -34.57485 -57.31218 23491 ft 495 kts 45°
2026-04-29 18:33 -34.55264 -57.28002 23784 ft 497 kts 45°
2026-04-29 18:33 -34.53035 -57.24778 24063 ft 498 kts 45°
2026-04-29 18:33 -34.50805 -57.21554 24347 ft 500 kts 45°
2026-04-29 18:33 -34.48587 -57.18352 24617 ft 501 kts 45°
2026-04-29 18:34 -34.46340 -57.15110 24877 ft 503 kts 45°
2026-04-29 18:34 -34.44847 -57.12959 25061 ft 504 kts 45°
2026-04-29 18:34 -34.41821 -57.08602 25422 ft 506 kts 45°
2026-04-29 18:34 -34.39551 -57.05338 25687 ft 507 kts 45°
2026-04-29 18:35 -34.37274 -57.02065 25926 ft 509 kts 45°
2026-04-29 18:35 -34.34990 -56.98784 26188 ft 510 kts 45°
2026-04-29 18:35 -34.32723 -56.95534 26430 ft 512 kts 45°
2026-04-29 18:35 -34.30390 -56.92187 26690 ft 513 kts 45°
2026-04-29 18:36 -34.28116 -56.88930 26930 ft 514 kts 45°
2026-04-29 18:36 -34.25803 -56.85623 27185 ft 516 kts 45°
2026-04-29 18:36 -34.23472 -56.82295 27392 ft 517 kts 44°
2026-04-29 18:36 -34.21147 -56.78983 27674 ft 517 kts 44°
2026-04-29 18:37 -34.18814 -56.75663 27940 ft 517 kts 44°
2026-04-29 18:37 -34.16507 -56.72383 28166 ft 519 kts 44°
2026-04-29 18:37 -34.14161 -56.69051 28358 ft 520 kts 44°
2026-04-29 18:37 -34.11810 -56.65711 28570 ft 522 kts 44°
2026-04-29 18:38 -34.09451 -56.62364 28780 ft 523 kts 44°
2026-04-29 18:38 -34.07087 -56.59013 28969 ft 524 kts 44°
2026-04-29 18:38 -34.04749 -56.55700 29166 ft 524 kts 43°
2026-04-29 18:38 -34.02383 -56.52349 29415 ft 524 kts 43°
2026-04-29 18:39 -34.00020 -56.49007 29643 ft 524 kts 43°
2026-04-29 18:39 -33.97640 -56.45645 29859 ft 524 kts 43°
2026-04-29 18:39 -33.95280 -56.42315 30087 ft 523 kts 43°
2026-04-29 18:39 -33.92909 -56.38970 30301 ft 522 kts 43°
2026-04-29 18:40 -33.90574 -56.35680 30470 ft 523 kts 43°
2026-04-29 18:40 -33.88209 -56.32353 30611 ft 523 kts 43°
2026-04-29 18:40 -33.85820 -56.29028 30796 ft 522 kts 42°
2026-04-29 18:40 -33.83430 -56.25728 31005 ft 521 kts 42°
2026-04-29 18:41 -33.76294 -56.15849 31484 ft 523 kts 43°
2026-04-29 18:41 -33.73919 -56.12525 31640 ft 523 kts 43°
2026-04-29 18:42 -33.71552 -56.09207 31846 ft 523 kts 43°
2026-04-29 18:42 -33.69211 -56.05925 31989 ft 523 kts 43°
2026-04-29 18:42 -33.66836 -56.02600 32148 ft 523 kts 43°
2026-04-29 18:42 -33.64457 -55.99278 32315 ft 523 kts 43°
2026-04-29 18:43 -33.62066 -55.95944 32486 ft 523 kts 43°
2026-04-29 18:43 -33.59715 -55.92670 32611 ft 524 kts 43°
2026-04-29 18:43 -33.57335 -55.89359 32767 ft 524 kts 43°
2026-04-29 18:43 -33.54950 -55.86047 32874 ft 525 kts 43°
2026-04-29 18:44 -33.50152 -55.79390 32938 ft 526 kts 43°
2026-04-29 18:44 -33.45413 -55.72820 32935 ft 521 kts 43°
2026-04-29 18:45 -33.40677 -55.66267 32941 ft 517 kts 43°
2026-04-29 18:45 -33.35986 -55.59793 32952 ft 516 kts 43°
2026-04-29 18:46 -33.31281 -55.53315 32954 ft 516 kts 43°
2026-04-29 18:46 -33.26557 -55.46821 32965 ft 517 kts 43°
2026-04-29 18:47 -33.21858 -55.40371 32961 ft 518 kts 43°
2026-04-29 18:47 -33.17119 -55.33878 32960 ft 519 kts 43°
2026-04-29 18:48 -33.12351 -55.27355 32964 ft 520 kts 43°
2026-04-29 18:48 -33.07614 -55.20885 32937 ft 521 kts 42°
2026-04-29 18:49 -33.02840 -55.14379 32960 ft 521 kts 42°
2026-04-29 18:49 -32.98057 -55.07870 32967 ft 522 kts 42°
2026-04-29 18:50 -32.93263 -55.01359 32969 ft 522 kts 42°
2026-04-29 18:50 -32.88489 -54.94885 32971 ft 522 kts 42°
2026-04-29 18:51 -32.83679 -54.88377 32971 ft 522 kts 42°
2026-04-29 18:51 -32.78873 -54.81882 32966 ft 522 kts 42°
2026-04-29 18:52 -32.74094 -54.75437 32967 ft 522 kts 42°
2026-04-29 18:52 -32.69289 -54.68969 32932 ft 521 kts 41°
2026-04-29 18:53 -32.64513 -54.62551 32965 ft 521 kts 41°
2026-04-29 18:53 -32.59710 -54.56109 32976 ft 521 kts 41°
2026-04-29 18:54 -32.54893 -54.49658 32952 ft 522 kts 41°
2026-04-29 18:54 -32.50071 -54.43212 32970 ft 523 kts 41°
2026-04-29 18:55 -32.45267 -54.36800 32976 ft 524 kts 41°
2026-04-29 18:55 -32.40410 -54.30328 32977 ft 524 kts 41°
2026-04-29 18:56 -32.35556 -54.23871 32969 ft 525 kts 41°
2026-04-29 18:56 -32.30741 -54.17427 32928 ft 525 kts 42°
2026-04-29 18:57 -32.25935 -54.10906 32969 ft 526 kts 42°
2026-04-29 18:57 -32.21119 -54.04383 32974 ft 526 kts 42°
2026-04-29 18:58 -32.16312 -53.97899 32964 ft 527 kts 42°
2026-04-29 18:58 -32.11462 -53.91373 32981 ft 526 kts 42°
2026-04-29 18:59 -32.06659 -53.84918 32990 ft 526 kts 42°
2026-04-29 18:59 -32.01819 -53.78429 32991 ft 526 kts 42°
2026-04-29 19:00 -31.96982 -53.71952 32971 ft 526 kts 42°
2026-04-29 19:00 -31.92134 -53.65469 32992 ft 525 kts 42°
2026-04-29 19:01 -31.87323 -53.59046 32983 ft 525 kts 42°
2026-04-29 19:01 -31.82506 -53.52626 32998 ft 525 kts 42°
2026-04-29 19:02 -31.78480 -53.47268 32996 ft 525 kts 42°
2026-04-29 19:02 -31.72826 -53.39757 32998 ft 525 kts 42°
2026-04-29 19:03 -31.67980 -53.33332 33006 ft 525 kts 42°
2026-04-29 19:03 -31.63151 -53.26940 33004 ft 525 kts 42°
2026-04-29 19:04 -31.58301 -53.20529 33014 ft 524 kts 42°
2026-04-29 19:04 -31.53442 -53.14119 32992 ft 525 kts 42°
2026-04-29 19:05 -31.48616 -53.07764 32994 ft 525 kts 42°
2026-04-29 19:05 -31.43755 -53.01372 33012 ft 526 kts 42°
2026-04-29 19:06 -31.38868 -52.94957 33008 ft 527 kts 42°
2026-04-29 19:07 -31.32355 -52.86422 33017 ft 529 kts 42°
2026-04-29 19:07 -31.27448 -52.79982 33020 ft 530 kts 42°
2026-04-29 19:08 -31.22539 -52.73529 33011 ft 530 kts 42°
2026-04-29 19:08 -31.17631 -52.67130 33017 ft 531 kts 42°
2026-04-29 19:09 -31.12684 -52.60709 33012 ft 530 kts 42°
2026-04-29 19:09 -31.07775 -52.54340 33018 ft 530 kts 42°
2026-04-29 19:10 -31.02838 -52.47941 33012 ft 530 kts 42°
2026-04-29 19:10 -30.97917 -52.41572 33018 ft 530 kts 42°
2026-04-29 19:11 -30.92980 -52.35192 33018 ft 530 kts 42°
2026-04-29 19:11 -30.88020 -52.28811 33019 ft 530 kts 41°
2026-04-29 19:12 -30.83022 -52.22571 33011 ft 529 kts 41°
2026-04-29 19:12 -30.77986 -52.16323 33018 ft 529 kts 41°
2026-04-29 19:13 -30.72961 -52.10065 33024 ft 529 kts 41°
2026-04-29 19:13 -30.67939 -52.03815 32994 ft 529 kts 41°
2026-04-29 19:14 -30.62909 -51.97564 33019 ft 529 kts 40°
2026-04-29 19:14 -30.57907 -51.91356 33030 ft 529 kts 40°
2026-04-29 19:15 -30.52864 -51.85105 33025 ft 529 kts 40°
2026-04-29 19:15 -30.47859 -51.78906 33013 ft 529 kts 40°
2026-04-29 19:16 -30.42842 -51.72667 33019 ft 529 kts 41°
2026-04-29 19:16 -30.37925 -51.66258 33026 ft 530 kts 43°
2026-04-29 19:17 -30.33079 -51.59874 32990 ft 530 kts 43°
2026-04-29 19:17 -30.28215 -51.53517 33019 ft 529 kts 42°
2026-04-29 19:18 -30.23314 -51.47155 33019 ft 528 kts 42°
2026-04-29 19:18 -30.18427 -51.40823 33015 ft 527 kts 42°
2026-04-29 19:19 -30.13536 -51.34491 33006 ft 527 kts 42°
2026-04-29 19:19 -30.08685 -51.28220 32990 ft 526 kts 41°
2026-04-29 19:20 -30.03808 -51.21926 32989 ft 525 kts 41°
2026-04-29 19:20 -29.98954 -51.15670 32995 ft 524 kts 41°
2026-04-29 19:21 -29.94077 -51.09416 32994 ft 523 kts 41°
2026-04-29 19:21 -29.89204 -51.03181 32997 ft 523 kts 41°
2026-04-29 19:22 -29.84343 -50.96967 33008 ft 523 kts 41°
2026-04-29 19:22 -29.79449 -50.90719 33014 ft 523 kts 41°
2026-04-29 19:23 -29.74594 -50.84529 33022 ft 524 kts 41°
2026-04-29 19:23 -29.69692 -50.78287 33023 ft 524 kts 41°
2026-04-29 19:24 -29.64796 -50.72064 33026 ft 524 kts 41°
2026-04-29 19:24 -29.59901 -50.65851 33029 ft 524 kts 41°
2026-04-29 19:25 -29.54996 -50.59634 33044 ft 524 kts 41°
2026-04-29 19:25 -29.49774 -50.53999 33027 ft 511 kts 29°
2026-04-29 19:26 -29.44038 -50.49173 33021 ft 511 kts 28°
2026-04-29 19:26 -29.38312 -50.44327 33023 ft 511 kts 29°
2026-04-29 19:27 -29.32612 -50.39455 33028 ft 511 kts 29°
2026-04-29 19:27 -29.26938 -50.34591 33031 ft 511 kts 29°
2026-04-29 19:28 -29.21228 -50.29705 33028 ft 511 kts 29°
2026-04-29 19:28 -29.15552 -50.24858 33025 ft 511 kts 29°
2026-04-29 19:29 -29.09848 -50.19994 33037 ft 511 kts 29°
2026-04-29 19:29 -29.04137 -50.15133 33029 ft 511 kts 28°
2026-04-29 19:30 -28.98425 -50.10276 33028 ft 512 kts 28°
2026-04-29 19:30 -28.92729 -50.05442 33034 ft 512 kts 28°
2026-04-29 19:31 -28.86994 -50.00580 33009 ft 513 kts 28°
2026-04-29 19:31 -28.81293 -49.95751 33021 ft 513 kts 28°
2026-04-29 19:32 -28.75546 -49.90891 33043 ft 514 kts 28°
2026-04-29 19:32 -28.69772 -49.86021 33068 ft 517 kts 28°
2026-04-29 19:33 -28.63980 -49.81124 33019 ft 518 kts 28°
2026-04-29 19:33 -28.58248 -49.76255 33042 ft 514 kts 28°
2026-04-29 19:34 -28.52504 -49.71408 33039 ft 512 kts 27°
2026-04-29 19:34 -28.46820 -49.66615 33035 ft 511 kts 27°
2026-04-29 19:35 -28.41092 -49.61810 33024 ft 510 kts 27°
2026-04-29 19:35 -28.35379 -49.57030 33033 ft 509 kts 27°
2026-04-29 19:36 -28.29672 -49.52259 33011 ft 508 kts 27°
2026-04-29 19:36 -28.24016 -49.47533 32987 ft 506 kts 27°
2026-04-29 19:37 -28.18378 -49.42836 32986 ft 503 kts 27°
2026-04-29 19:37 -28.12738 -49.38152 33028 ft 503 kts 27°
2026-04-29 19:38 -28.07076 -49.33448 33041 ft 506 kts 27°
2026-04-29 19:38 -28.01453 -49.28672 33025 ft 508 kts 27°
2026-04-29 19:39 -27.95797 -49.23853 33049 ft 508 kts 27°
2026-04-29 19:39 -27.90125 -49.19046 33030 ft 509 kts 28°
2026-04-29 19:40 -27.84436 -49.14336 33027 ft 508 kts 26°
2026-04-29 19:40 -27.78650 -49.09749 33033 ft 508 kts 26°
2026-04-29 19:41 -27.72864 -49.05139 33038 ft 507 kts 26°
2026-04-29 19:41 -27.67166 -49.00521 33017 ft 507 kts 27°
2026-04-29 19:42 -27.61479 -48.95790 33032 ft 506 kts 27°
2026-04-29 19:42 -27.55798 -48.91101 33026 ft 505 kts 26°
2026-04-29 19:43 -27.50111 -48.86426 33019 ft 505 kts 26°
2026-04-29 19:43 -27.44450 -48.81782 33009 ft 508 kts 26°
2026-04-29 19:44 -27.38750 -48.77088 33008 ft 506 kts 26°
2026-04-29 19:44 -27.33073 -48.72426 33007 ft 504 kts 26°
2026-04-29 19:45 -27.27427 -48.67801 33010 ft 502 kts 25°
2026-04-29 19:45 -27.21810 -48.63158 33000 ft 504 kts 26°
2026-04-29 19:46 -27.16181 -48.58462 33006 ft 502 kts 25°
2026-04-29 19:46 -27.10505 -48.53875 33013 ft 503 kts 25°
2026-04-29 19:47 -27.04788 -48.49267 33006 ft 505 kts 25°
2026-04-29 19:47 -26.99110 -48.44683 32987 ft 506 kts 25°
2026-04-29 19:48 -26.93402 -48.40075 33002 ft 502 kts 26°
2026-04-29 19:48 -26.87737 -48.35508 33003 ft 501 kts 26°
2026-04-29 19:49 -26.82110 -48.30982 33013 ft 499 kts 26°
2026-04-29 19:49 -26.76473 -48.26453 33011 ft 498 kts 26°
2026-04-29 19:50 -26.70831 -48.21924 32996 ft 498 kts 26°
2026-04-29 19:50 -26.65237 -48.17424 33007 ft 497 kts 26°
2026-04-29 19:51 -26.59623 -48.12906 33003 ft 497 kts 26°
2026-04-29 19:51 -26.54948 -48.09149 32998 ft 497 kts 26°
2026-04-29 19:52 -26.49317 -48.04629 32995 ft 497 kts 26°
2026-04-29 19:52 -26.43714 -48.00138 32982 ft 498 kts 26°
2026-04-29 19:53 -26.38075 -47.95622 32992 ft 498 kts 26°
2026-04-29 19:53 -26.32431 -47.91107 32984 ft 498 kts 26°
2026-04-29 19:54 -26.24006 -47.84370 32989 ft 499 kts 26°
2026-04-29 19:54 -26.18343 -47.79845 32995 ft 499 kts 26°
2026-04-29 19:55 -26.12682 -47.75327 32996 ft 499 kts 27°
2026-04-29 19:55 -26.07059 -47.70856 32988 ft 500 kts 26°
2026-04-29 19:56 -26.01387 -47.66359 32986 ft 500 kts 26°
2026-04-29 19:56 -25.95742 -47.61934 32939 ft 500 kts 27°
2026-04-29 19:57 -25.90112 -47.57368 32975 ft 499 kts 27°
2026-04-29 19:57 -25.84432 -47.52901 32984 ft 499 kts 27°
2026-04-29 19:58 -25.78787 -47.48474 32996 ft 500 kts 27°
2026-04-29 19:58 -25.73091 -47.43988 32992 ft 501 kts 27°
2026-04-29 19:59 -25.67405 -47.39504 32977 ft 501 kts 27°
2026-04-29 19:59 -25.61754 -47.35053 32980 ft 501 kts 27°
2026-04-29 20:00 -25.56064 -47.30579 32994 ft 501 kts 27°
2026-04-29 20:00 -25.50364 -47.26103 32995 ft 501 kts 27°
2026-04-29 20:01 -25.44705 -47.21665 32995 ft 501 kts 27°
2026-04-29 20:01 -25.39000 -47.17195 32976 ft 501 kts 27°
2026-04-29 20:02 -25.33301 -47.12736 32988 ft 501 kts 27°
2026-04-29 20:02 -25.28565 -47.09033 32999 ft 502 kts 27°
2026-04-29 20:03 -25.21920 -47.03844 33008 ft 503 kts 27°
2026-04-29 20:03 -25.16170 -46.99359 33007 ft 504 kts 27°
2026-04-29 20:04 -25.10331 -46.95214 32997 ft 499 kts 22°
2026-04-29 20:04 -25.04339 -46.91328 32992 ft 500 kts 22°
2026-04-29 20:05 -24.98319 -46.87413 33009 ft 502 kts 22°
2026-04-29 20:05 -24.92342 -46.83500 33009 ft 504 kts 22°
2026-04-29 20:06 -24.86310 -46.79547 33009 ft 505 kts 22°
2026-04-29 20:06 -24.80251 -46.75583 33010 ft 506 kts 22°
2026-04-29 20:07 -24.74234 -46.71652 32984 ft 506 kts 22°
2026-04-29 20:07 -24.68163 -46.67690 33007 ft 506 kts 22°
2026-04-29 20:08 -24.63084 -46.64516 33004 ft 499 kts 16°
2026-04-29 20:08 -24.58823 -46.62731 33009 ft 488 kts
2026-04-29 20:08 -24.55550 -46.61819 33016 ft 481 kts
2026-04-29 20:09 -24.49011 -46.60904 33016 ft 475 kts 358°
2026-04-29 20:09 -24.42426 -46.60057 33003 ft 476 kts 359°
2026-04-29 20:10 -24.35857 -46.59169 33015 ft 478 kts 359°
2026-04-29 20:10 -24.29228 -46.58259 33010 ft 479 kts 359°
2026-04-29 20:11 -24.22602 -46.57351 33002 ft 480 kts 359°
2026-04-29 20:11 -24.16004 -46.56457 33017 ft 480 kts 360°
2026-04-29 20:12 -24.09363 -46.55539 33035 ft 481 kts 360°
2026-04-29 20:12 -24.02714 -46.54638 33037 ft 481 kts 359°
2026-04-29 20:13 -23.96100 -46.53746 33035 ft 481 kts 359°
2026-04-29 20:13 -23.89437 -46.52810 33072 ft 484 kts
2026-04-29 20:14 -23.82836 -46.50980 33104 ft 491 kts
2026-04-29 20:14 -23.76292 -46.49004 33127 ft 490 kts
2026-04-29 20:15 -23.69688 -46.47063 33137 ft 490 kts
2026-04-29 20:15 -23.63082 -46.45114 33130 ft 491 kts
2026-04-29 20:16 -23.56517 -46.43182 33141 ft 490 kts
2026-04-29 20:16 -23.49916 -46.41316 33153 ft 489 kts
2026-04-29 20:17 -23.43317 -46.39398 33161 ft 490 kts
2026-04-29 20:17 -23.36756 -46.37573 33157 ft 488 kts
2026-04-29 20:18 -23.30107 -46.36060 33120 ft 488 kts
2026-04-29 20:18 -23.23454 -46.34515 33095 ft 490 kts
2026-04-29 20:19 -23.16771 -46.32913 33021 ft 491 kts
2026-04-29 20:19 -23.10116 -46.31331 33006 ft 493 kts
2026-04-29 20:20 -23.03408 -46.29739 33011 ft 493 kts
2026-04-29 20:20 -22.96683 -46.28142 33013 ft 493 kts
2026-04-29 20:21 -22.90027 -46.26564 33024 ft 491 kts
2026-04-29 20:21 -22.83347 -46.24977 33039 ft 488 kts
2026-04-29 20:22 -22.76826 -46.23035 33045 ft 494 kts 16°
2026-04-29 20:22 -22.70687 -46.19506 33031 ft 504 kts 30°
2026-04-29 20:23 -22.65113 -46.14823 33038 ft 507 kts 34°
2026-04-29 20:23 -22.59710 -46.09930 33048 ft 506 kts 34°
2026-04-29 20:24 -22.54316 -46.05084 33055 ft 505 kts 34°
2026-04-29 20:24 -22.48856 -46.00263 33038 ft 506 kts 33°
2026-04-29 20:25 -22.43419 -45.95486 33059 ft 506 kts 33°
2026-04-29 20:25 -22.37962 -45.90690 33017 ft 508 kts 34°
2026-04-29 20:26 -22.32469 -45.85860 33046 ft 509 kts 34°
2026-04-29 20:26 -22.26946 -45.81020 33047 ft 511 kts 33°
2026-04-29 20:27 -22.22319 -45.77012 33027 ft 513 kts 33°
2026-04-29 20:27 -22.15812 -45.71407 33037 ft 514 kts 34°
2026-04-29 20:28 -22.10210 -45.66581 33031 ft 515 kts 34°
2026-04-29 20:28 -22.04607 -45.61751 33020 ft 515 kts 34°
2026-04-29 20:29 -21.99019 -45.56935 33024 ft 513 kts 34°
2026-04-29 20:29 -21.93467 -45.52158 33031 ft 512 kts 34°
2026-04-29 20:30 -21.87903 -45.47376 33027 ft 510 kts 34°
2026-04-29 20:30 -21.82387 -45.42640 33033 ft 508 kts 34°
2026-04-29 20:31 -21.76861 -45.37900 33028 ft 507 kts 34°
2026-04-29 20:31 -21.71338 -45.33169 33019 ft 506 kts 34°
2026-04-29 20:32 -21.65821 -45.28447 33028 ft 506 kts 34°
2026-04-29 20:32 -21.61229 -45.24521 33032 ft 506 kts 34°
2026-04-29 20:33 -21.54799 -45.19027 33022 ft 507 kts 34°
2026-04-29 20:33 -21.49268 -45.14308 33030 ft 507 kts 34°
2026-04-29 20:34 -21.43763 -45.09614 33030 ft 508 kts 34°
2026-04-29 20:34 -21.38207 -45.04882 33022 ft 508 kts 34°
2026-04-29 20:35 -21.32687 -45.00187 33035 ft 509 kts 34°
2026-04-29 20:35 -21.27134 -44.95464 33025 ft 509 kts 34°
2026-04-29 20:36 -21.21566 -44.90733 33029 ft 509 kts 34°
2026-04-29 20:36 -21.16003 -44.86010 33025 ft 510 kts 35°
2026-04-29 20:37 -21.10477 -44.81297 33032 ft 510 kts 35°
2026-04-29 20:37 -21.04918 -44.76561 33036 ft 510 kts 34°
2026-04-29 20:38 -21.00181 -44.72803 33041 ft 508 kts 31°
2026-04-29 20:38 -20.94359 -44.68472 33041 ft 509 kts 31°
2026-04-29 20:39 -20.88598 -44.64127 33040 ft 509 kts 32°
2026-04-29 20:39 -20.82813 -44.59706 33047 ft 509 kts 32°
2026-04-29 20:40 -20.77075 -44.55329 33042 ft 509 kts 32°
2026-04-29 20:40 -20.71298 -44.50929 33048 ft 509 kts 32°
2026-04-29 20:41 -20.65520 -44.46531 33049 ft 509 kts 32°
2026-04-29 20:41 -20.59775 -44.42160 33047 ft 509 kts 32°
2026-04-29 20:42 -20.53997 -44.37768 33055 ft 509 kts 32°
2026-04-29 20:42 -20.48257 -44.33408 33053 ft 508 kts 32°
2026-04-29 20:43 -20.42493 -44.29023 33057 ft 508 kts 33°
2026-04-29 20:43 -20.36797 -44.24516 33052 ft 509 kts 34°
2026-04-29 20:44 -20.31169 -44.20008 33050 ft 509 kts 34°
2026-04-29 20:44 -20.25491 -44.15493 33060 ft 509 kts 33°
2026-04-29 20:45 -20.19800 -44.10987 33053 ft 509 kts 34°
2026-04-29 20:45 -20.14110 -44.06485 33062 ft 509 kts 34°
2026-04-29 20:46 -20.08441 -44.02003 33077 ft 509 kts 34°
2026-04-29 20:46 -20.02733 -43.97521 33080 ft 509 kts 33°
2026-04-29 20:47 -19.97053 -43.93074 33092 ft 509 kts 34°
2026-04-29 20:47 -19.91346 -43.88602 33106 ft 509 kts 34°
2026-04-29 20:48 -19.85631 -43.84126 33102 ft 509 kts 34°
2026-04-29 20:48 -19.79854 -43.79821 33085 ft 508 kts 32°
2026-04-29 20:49 -19.73969 -43.75628 33078 ft 508 kts 32°
2026-04-29 20:49 -19.68135 -43.71446 33087 ft 508 kts 32°
2026-04-29 20:50 -19.62292 -43.67222 33080 ft 508 kts 32°
2026-04-29 20:50 -19.56435 -43.62982 33073 ft 508 kts 32°
2026-04-29 20:51 -19.50607 -43.58768 33068 ft 507 kts 32°
2026-04-29 20:51 -19.44792 -43.54571 33061 ft 507 kts 32°
2026-04-29 20:52 -19.38948 -43.50356 33064 ft 507 kts 32°
2026-04-29 20:52 -19.33084 -43.46220 33055 ft 505 kts 28°
2026-04-29 20:53 -19.26785 -43.43073 33055 ft 501 kts 17°
2026-04-29 20:53 -19.20147 -43.40816 33058 ft 501 kts 16°
2026-04-29 20:54 -19.10219 -43.37395 33058 ft 501 kts 17°
2026-04-29 20:55 -19.03584 -43.35072 33051 ft 501 kts 17°
2026-04-29 20:55 -18.96953 -43.32751 33058 ft 501 kts 17°
2026-04-29 20:56 -18.90363 -43.30449 33051 ft 502 kts 17°
2026-04-29 20:56 -18.83733 -43.28138 33059 ft 502 kts 17°
2026-04-29 20:57 -18.77068 -43.25834 33056 ft 502 kts 17°
2026-04-29 20:57 -18.70456 -43.23547 33053 ft 502 kts 17°
2026-04-29 20:58 -18.63804 -43.21289 33058 ft 502 kts 16°
2026-04-29 20:58 -18.57153 -43.19120 33058 ft 502 kts 15°
2026-04-29 20:59 -18.50479 -43.16939 33052 ft 502 kts 16°
2026-04-29 20:59 -18.43784 -43.14738 33056 ft 502 kts 16°
2026-04-29 21:00 -18.37157 -43.12500 33058 ft 503 kts 19°
2026-04-29 21:00 -18.30590 -43.09926 33055 ft 503 kts 19°
2026-04-29 21:01 -18.24050 -43.07315 33060 ft 502 kts 20°
2026-04-29 21:01 -18.17498 -43.04719 33055 ft 503 kts 19°
2026-04-29 21:02 -18.10962 -43.02150 33054 ft 502 kts 19°
2026-04-29 21:02 -18.04443 -42.99591 33050 ft 502 kts 20°
2026-04-29 21:03 -17.97883 -42.97021 33054 ft 502 kts 19°
2026-04-29 21:03 -17.91327 -42.94453 33055 ft 502 kts 20°
2026-04-29 21:04 -17.84825 -42.91906 33049 ft 502 kts 20°
2026-04-29 21:04 -17.78272 -42.89336 33048 ft 502 kts 20°
2026-04-29 21:05 -17.71706 -42.86775 33048 ft 502 kts 20°
2026-04-29 21:05 -17.65183 -42.84225 33040 ft 502 kts 20°
2026-04-29 21:06 -17.58599 -42.81653 33041 ft 503 kts 20°
2026-04-29 21:06 -17.52074 -42.79108 33041 ft 503 kts 20°
2026-04-29 21:07 -17.45512 -42.76548 33028 ft 503 kts 20°
2026-04-29 21:07 -17.38929 -42.73998 33029 ft 503 kts 20°
2026-04-29 21:08 -17.32342 -42.71449 33027 ft 504 kts 20°
2026-04-29 21:08 -17.25798 -42.68911 33024 ft 504 kts 20°
2026-04-29 21:09 -17.19202 -42.66351 33025 ft 504 kts 20°
2026-04-29 21:09 -17.12657 -42.63818 33024 ft 504 kts 20°
2026-04-29 21:10 -17.06072 -42.61271 33024 ft 504 kts 21°
2026-04-29 21:10 -16.99517 -42.58737 33009 ft 504 kts 21°
2026-04-29 21:11 -16.92910 -42.56185 33010 ft 504 kts 21°
2026-04-29 21:11 -16.86372 -42.53658 33012 ft 504 kts 21°
2026-04-29 21:12 -16.79789 -42.51123 33014 ft 503 kts 21°
2026-04-29 21:12 -16.73213 -42.48589 33014 ft 503 kts 21°
2026-04-29 21:13 -16.66671 -42.46067 33010 ft 503 kts 21°
2026-04-29 21:13 -16.60078 -42.43536 33011 ft 503 kts 20°
2026-04-29 21:14 -16.53533 -42.41033 33008 ft 503 kts 21°
2026-04-29 21:14 -16.46958 -42.38497 33008 ft 503 kts 21°
2026-04-29 21:15 -16.40382 -42.35959 33012 ft 503 kts 21°
2026-04-29 21:15 -16.33840 -42.33438 33014 ft 503 kts 21°
2026-04-29 21:16 -16.27257 -42.30906 33015 ft 503 kts 21°
2026-04-29 21:16 -16.20675 -42.28375 33014 ft 503 kts 21°
2026-04-29 21:17 -16.14187 -42.25765 33017 ft 502 kts 26°
2026-04-29 21:17 -16.07902 -42.22584 33018 ft 502 kts 27°
2026-04-29 21:18 -16.01641 -42.19352 33021 ft 502 kts 27°
2026-04-29 21:18 -15.95399 -42.16156 33023 ft 502 kts 27°
2026-04-29 21:19 -15.89112 -42.12965 33025 ft 502 kts 27°
2026-04-29 21:19 -15.82812 -42.09779 33025 ft 502 kts 27°
2026-04-29 21:20 -15.76552 -42.06614 33025 ft 503 kts 27°
2026-04-29 21:20 -15.70255 -42.03431 33029 ft 503 kts 27°
2026-04-29 21:21 -15.63990 -42.00266 33032 ft 503 kts 27°
2026-04-29 21:21 -15.57689 -41.97085 33026 ft 504 kts 27°
2026-04-29 21:22 -15.51386 -41.93905 33034 ft 504 kts 27°
2026-04-29 21:22 -15.45072 -41.90722 33035 ft 504 kts 27°
2026-04-29 21:23 -15.38749 -41.87536 33034 ft 504 kts 27°
2026-04-29 21:23 -15.32463 -41.84371 33036 ft 505 kts 27°
2026-04-29 21:24 -15.26145 -41.81193 33031 ft 505 kts 27°
2026-04-29 21:24 -15.19809 -41.78007 33031 ft 505 kts 27°
2026-04-29 21:25 -15.13525 -41.74850 33023 ft 505 kts 27°
2026-04-29 21:25 -15.07184 -41.71666 33025 ft 505 kts 27°
2026-04-29 21:26 -15.00882 -41.68504 33023 ft 505 kts 27°
2026-04-29 21:26 -14.95616 -41.65862 33026 ft 505 kts 27°
2026-04-29 21:27 -14.89267 -41.62681 33018 ft 505 kts 27°
2026-04-29 21:27 -14.82936 -41.59510 33014 ft 505 kts 27°
2026-04-29 21:28 -14.76642 -41.56359 33015 ft 506 kts 27°
2026-04-29 21:28 -14.70279 -41.53177 33006 ft 506 kts 27°
2026-04-29 21:29 -14.63978 -41.50027 33001 ft 506 kts 27°
2026-04-29 21:29 -14.57636 -41.46859 33005 ft 506 kts 27°
2026-04-29 21:30 -14.51279 -41.43685 33002 ft 506 kts 27°
2026-04-29 21:30 -14.44948 -41.40527 32999 ft 505 kts 27°
2026-04-29 21:31 -14.38659 -41.37391 32997 ft 505 kts 27°
2026-04-29 21:31 -14.32318 -41.34231 32997 ft 505 kts 27°
2026-04-29 21:32 -14.25994 -41.31082 32993 ft 505 kts 27°
2026-04-29 21:32 -14.19702 -41.27950 32994 ft 504 kts 27°
2026-04-29 21:33 -14.13372 -41.24802 32999 ft 504 kts 27°
2026-04-29 21:33 -14.07092 -41.21680 33002 ft 504 kts 27°
2026-04-29 21:34 -14.00773 -41.18541 33005 ft 503 kts 27°
2026-04-29 21:34 -13.94447 -41.15399 33008 ft 504 kts 27°
2026-04-29 21:35 -13.88153 -41.12276 33004 ft 504 kts 27°
2026-04-29 21:35 -13.81819 -41.09143 33004 ft 504 kts 27°
2026-04-29 21:36 -13.75489 -41.06018 33009 ft 504 kts 27°
2026-04-29 21:36 -13.69202 -41.02914 33007 ft 504 kts 27°
2026-04-29 21:37 -13.62853 -40.99780 33012 ft 504 kts 27°
2026-04-29 21:37 -13.56524 -40.96657 33019 ft 505 kts 27°
2026-04-29 21:38 -13.50214 -40.93546 33016 ft 505 kts 27°
2026-04-29 21:38 -13.43875 -40.90423 33018 ft 505 kts 27°
2026-04-29 21:39 -13.37529 -40.87297 33009 ft 505 kts 27°
2026-04-29 21:39 -13.31231 -40.84197 33014 ft 504 kts 27°
2026-04-29 21:40 -13.24899 -40.81082 33011 ft 504 kts 27°
2026-04-29 21:40 -13.18563 -40.77966 33011 ft 504 kts 27°
2026-04-29 21:41 -13.12239 -40.74856 33009 ft 503 kts 27°
2026-04-29 21:41 -13.05965 -40.71764 33014 ft 503 kts 27°
2026-04-29 21:42 -12.99668 -40.68661 33013 ft 502 kts 27°
2026-04-29 21:42 -12.93351 -40.65551 33008 ft 502 kts 27°
2026-04-29 21:43 -12.87071 -40.62461 33015 ft 503 kts 27°
2026-04-29 21:43 -12.80756 -40.59356 33013 ft 503 kts 27°
2026-04-29 21:44 -12.74470 -40.56266 33014 ft 503 kts 27°
2026-04-29 21:44 -12.68132 -40.53153 33009 ft 503 kts 27°
2026-04-29 21:45 -12.61841 -40.50067 33016 ft 504 kts 27°
2026-04-29 21:45 -12.55505 -40.46959 33013 ft 504 kts 27°
2026-04-29 21:46 -12.49168 -40.43851 33013 ft 504 kts 27°
2026-04-29 21:46 -12.42872 -40.40765 33017 ft 504 kts 27°
2026-04-29 21:47 -12.36533 -40.37660 33015 ft 504 kts 27°
2026-04-29 21:47 -12.30201 -40.34560 33017 ft 504 kts 27°
2026-04-29 21:48 -12.23855 -40.31455 33014 ft 504 kts 27°
2026-04-29 21:48 -12.17559 -40.28376 33014 ft 504 kts 27°
2026-04-29 21:49 -12.11211 -40.25273 33016 ft 504 kts 27°
2026-04-29 21:49 -12.04867 -40.22173 33019 ft 504 kts 27°
2026-04-29 21:50 -11.98560 -40.19093 33013 ft 504 kts 27°
2026-04-29 21:50 -11.92218 -40.15998 33016 ft 504 kts 27°
2026-04-29 21:51 -11.85917 -40.12924 33005 ft 504 kts 27°
2026-04-29 21:51 -11.76413 -40.08291 33008 ft 504 kts 27°
2026-04-29 21:52 -11.70107 -40.05218 33010 ft 504 kts 27°
2026-04-29 21:52 -11.63765 -40.02129 33003 ft 504 kts 27°
2026-04-29 21:53 -11.57429 -39.99046 33004 ft 504 kts 27°
2026-04-29 21:53 -11.51124 -39.95987 33001 ft 504 kts 27°
2026-04-29 21:54 -11.44781 -39.92911 33005 ft 504 kts 27°
2026-04-29 21:54 -11.38426 -39.89830 33001 ft 504 kts 27°
2026-04-29 21:55 -11.32114 -39.86770 32997 ft 505 kts 27°
2026-04-29 21:55 -11.25765 -39.83694 32996 ft 505 kts 27°
2026-04-29 21:56 -11.19401 -39.80612 32991 ft 505 kts 27°
2026-04-29 21:56 -11.13087 -39.77555 32989 ft 505 kts 27°
2026-04-29 21:57 -11.06738 -39.74483 32990 ft 505 kts 27°
2026-04-29 21:57 -11.00420 -39.71429 32997 ft 504 kts 27°
2026-04-29 21:58 -10.94072 -39.68360 32992 ft 504 kts 27°
2026-04-29 21:58 -10.87724 -39.65293 32990 ft 504 kts 27°
2026-04-29 21:59 -10.81406 -39.62242 32986 ft 504 kts 27°
2026-04-29 21:59 -10.75054 -39.59176 32988 ft 504 kts 27°
2026-04-29 22:00 -10.68712 -39.56116 32988 ft 504 kts 27°
2026-04-29 22:00 -10.62411 -39.53077 32987 ft 504 kts 27°
2026-04-29 22:01 -10.56066 -39.50019 32986 ft 503 kts 27°
2026-04-29 22:01 -10.49723 -39.46962 32989 ft 503 kts 27°
2026-04-29 22:02 -10.43425 -39.43928 32986 ft 503 kts 27°
2026-04-29 22:02 -10.37099 -39.40886 32986 ft 503 kts 27°
2026-04-29 22:03 -10.30759 -39.37840 32987 ft 503 kts 27°
2026-04-29 22:03 -10.24458 -39.34813 32984 ft 503 kts 27°
2026-04-29 22:04 -10.18120 -39.31767 32981 ft 503 kts 27°
2026-04-29 22:04 -10.11786 -39.28722 32979 ft 502 kts 27°
2026-04-29 22:05 -10.05497 -39.25699 32983 ft 502 kts 27°
2026-04-29 22:06 -9.96009 -39.21142 32975 ft 502 kts 27°
2026-04-29 22:06 -9.89730 -39.18127 32976 ft 502 kts 27°
2026-04-29 22:07 -9.83393 -39.15096 32968 ft 502 kts 26°
2026-04-29 22:07 -9.77030 -39.12148 32976 ft 502 kts 26°
2026-04-29 22:08 -9.70697 -39.09243 32969 ft 502 kts 26°
2026-04-29 22:08 -9.64324 -39.06310 32972 ft 502 kts 26°
2026-04-29 22:09 -9.57987 -39.03384 32968 ft 503 kts 26°
2026-04-29 22:09 -9.51614 -39.00441 32967 ft 503 kts 26°
2026-04-29 22:10 -9.45243 -38.97500 32965 ft 503 kts 26°
2026-04-29 22:10 -9.38866 -38.94558 32967 ft 503 kts 26°
2026-04-29 22:11 -9.32486 -38.91617 32970 ft 503 kts 26°
2026-04-29 22:11 -9.26133 -38.88688 32961 ft 503 kts 26°
2026-04-29 22:12 -9.19751 -38.85748 32956 ft 503 kts 26°
2026-04-29 22:12 -9.14443 -38.83303 32958 ft 503 kts 26°
2026-04-29 22:13 -9.08055 -38.80362 32954 ft 503 kts 26°
2026-04-29 22:13 -9.01706 -38.77440 32954 ft 503 kts 26°
2026-04-29 22:14 -8.95329 -38.74506 32953 ft 503 kts 26°
2026-04-29 22:14 -8.88931 -38.71563 32953 ft 503 kts 26°
2026-04-29 22:15 -8.82538 -38.68625 32952 ft 503 kts 26°
2026-04-29 22:15 -8.76185 -38.65713 32939 ft 503 kts 26°
2026-04-29 22:16 -8.69803 -38.62787 32949 ft 503 kts 26°
2026-04-29 22:16 -8.63414 -38.59857 32951 ft 503 kts 26°
2026-04-29 22:17 -8.57065 -38.56948 32950 ft 503 kts 26°
2026-04-29 22:17 -8.50679 -38.54010 32953 ft 503 kts 26°
2026-04-29 22:18 -8.44311 -38.51074 32952 ft 503 kts 26°
2026-04-29 22:18 -8.37972 -38.48154 32949 ft 503 kts 26°
2026-04-29 22:19 -8.31596 -38.45218 32958 ft 503 kts 26°
2026-04-29 22:19 -8.25225 -38.42289 32953 ft 502 kts 25°
2026-04-29 22:20 -8.18849 -38.39366 32954 ft 503 kts 25°
2026-04-29 22:20 -8.12509 -38.36461 32955 ft 503 kts 25°
2026-04-29 22:21 -8.06125 -38.33535 32957 ft 503 kts 25°
2026-04-29 22:21 -7.99747 -38.30611 32955 ft 503 kts 26°
2026-04-29 22:22 -7.93402 -38.27704 32960 ft 503 kts 26°
2026-04-29 22:22 -7.87031 -38.24786 32958 ft 504 kts 26°
2026-04-29 22:23 -7.80618 -38.21849 32957 ft 505 kts 26°
2026-04-29 22:23 -7.74245 -38.18934 32949 ft 505 kts 25°
2026-04-29 22:24 -7.67831 -38.16012 32955 ft 505 kts 25°
2026-04-29 22:24 -7.61399 -38.13084 32947 ft 505 kts 25°
2026-04-29 22:25 -7.54990 -38.10165 32948 ft 505 kts 25°
2026-04-29 22:25 -7.48621 -38.07264 32942 ft 505 kts 25°
2026-04-29 22:26 -7.42192 -38.04337 32940 ft 505 kts 25°
2026-04-29 22:26 -7.35817 -38.01435 32934 ft 505 kts 25°
2026-04-29 22:27 -7.29412 -37.98520 32925 ft 504 kts 25°
2026-04-29 22:27 -7.23010 -37.95608 32927 ft 504 kts 25°
2026-04-29 22:28 -7.16603 -37.92694 32922 ft 504 kts 26°
2026-04-29 22:28 -7.10245 -37.89796 32922 ft 504 kts 26°
2026-04-29 22:29 -7.03859 -37.86879 32920 ft 504 kts 26°
2026-04-29 22:29 -6.97467 -37.83960 32915 ft 504 kts 26°
2026-04-29 22:30 -6.91074 -37.81043 32917 ft 504 kts 26°
2026-04-29 22:30 -6.84710 -37.78139 32919 ft 504 kts 26°
2026-04-29 22:31 -6.78351 -37.75241 32924 ft 505 kts 26°
2026-04-29 22:31 -6.71923 -37.72320 33220 ft 505 kts 26°
2026-04-29 22:31 -6.68721 -37.70866 33459 ft 504 kts 25°
2026-04-29 22:32 -6.65516 -37.69411 33627 ft 504 kts 25°
2026-04-29 22:32 -6.62308 -37.67954 33791 ft 505 kts 25°
2026-04-29 22:32 -6.59108 -37.66500 33971 ft 504 kts 25°
2026-04-29 22:32 -6.55943 -37.65062 34166 ft 503 kts 25°
2026-04-29 22:33 -6.52749 -37.63611 34344 ft 502 kts 25°
2026-04-29 22:33 -6.49549 -37.62158 34500 ft 502 kts 25°
2026-04-29 22:33 -6.46371 -37.60714 34650 ft 502 kts 25°
2026-04-29 22:33 -6.43187 -37.59269 34801 ft 502 kts 25°
2026-04-29 22:34 -6.39997 -37.57821 34853 ft 504 kts 25°
2026-04-29 22:34 -6.33631 -37.54931 34909 ft 504 kts 25°
2026-04-29 22:35 -6.27246 -37.52034 34908 ft 502 kts 25°
2026-04-29 22:35 -6.20908 -37.49159 34910 ft 501 kts 25°
2026-04-29 22:36 -6.14554 -37.46277 34910 ft 500 kts 25°
2026-04-29 22:36 -6.08236 -37.43411 34910 ft 499 kts 25°
2026-04-29 22:37 -6.01887 -37.40533 34904 ft 499 kts 25°
2026-04-29 22:37 -5.95537 -37.37667 34911 ft 499 kts 25°
2026-04-29 22:38 -5.89218 -37.34819 34905 ft 500 kts 25°
2026-04-29 22:38 -5.82850 -37.31946 34909 ft 501 kts 25°
2026-04-29 22:39 -5.76484 -37.29075 34910 ft 502 kts 25°
2026-04-29 22:39 -5.70142 -37.26185 34908 ft 502 kts 25°
2026-04-29 22:40 -5.63769 -37.23255 34906 ft 503 kts 25°
2026-04-29 22:40 -5.57429 -37.20346 34907 ft 503 kts 25°
2026-04-29 22:41 -5.51041 -37.17419 34906 ft 503 kts 25°
2026-04-29 22:41 -5.44710 -37.14520 34902 ft 503 kts 25°
2026-04-29 22:42 -5.38326 -37.11612 34898 ft 502 kts 25°
2026-04-29 22:42 -5.31989 -37.08729 34899 ft 502 kts 25°
2026-04-29 22:43 -5.25614 -37.05827 34904 ft 502 kts 25°
2026-04-29 22:43 -5.19237 -37.02923 34905 ft 502 kts 25°
2026-04-29 22:44 -5.12917 -37.00046 34913 ft 501 kts 25°
2026-04-29 22:44 -5.06557 -36.97151 34905 ft 501 kts 25°
2026-04-29 22:45 -5.00200 -36.94258 34910 ft 501 kts 25°
2026-04-29 22:45 -4.93851 -36.91368 34909 ft 501 kts 25°
2026-04-29 22:46 -4.87522 -36.88473 34905 ft 501 kts 25°
2026-04-29 22:46 -4.81170 -36.85565 34908 ft 502 kts 26°
2026-04-29 22:47 -4.74803 -36.82652 34907 ft 503 kts 26°
2026-04-29 22:47 -4.68428 -36.79738 34907 ft 504 kts 26°
2026-04-29 22:48 -4.62032 -36.76821 34908 ft 505 kts 26°
2026-04-29 22:48 -4.55661 -36.73920 34909 ft 505 kts 26°
2026-04-29 22:49 -4.49241 -36.70998 34905 ft 505 kts 26°
2026-04-29 22:49 -4.42846 -36.68080 34907 ft 504 kts 26°
2026-04-29 22:50 -4.36490 -36.65182 34908 ft 504 kts 25°
2026-04-29 22:50 -4.30100 -36.62266 34910 ft 503 kts 25°
2026-04-29 22:51 -4.23722 -36.59365 34912 ft 502 kts 25°
2026-04-29 22:51 -4.14208 -36.55034 34911 ft 502 kts 26°
2026-04-29 22:52 -4.07827 -36.52126 34910 ft 501 kts 26°
2026-04-29 22:52 -4.01510 -36.49247 34910 ft 501 kts 26°
2026-04-29 22:53 -3.95150 -36.46351 34915 ft 501 kts 26°
2026-04-29 22:53 -3.88802 -36.43463 34916 ft 500 kts 25°
2026-04-29 22:54 -3.82502 -36.40596 34917 ft 500 kts 26°
2026-04-29 22:54 -3.76171 -36.37715 34918 ft 500 kts 25°
2026-04-29 22:55 -3.69835 -36.34832 34919 ft 499 kts 26°
2026-04-29 22:55 -3.63535 -36.31966 34923 ft 499 kts 26°
2026-04-29 22:56 -3.57193 -36.29082 34921 ft 499 kts 26°
2026-04-29 22:56 -3.50898 -36.26220 34923 ft 498 kts 26°
2026-04-29 22:57 -3.44571 -36.23343 34920 ft 498 kts 26°
2026-04-29 22:57 -3.39323 -36.20958 34925 ft 498 kts 26°
2026-04-29 22:58 -3.32988 -36.18080 34925 ft 498 kts 26°
2026-04-29 22:58 -3.26700 -36.15216 34923 ft 499 kts 26°
2026-04-29 22:59 -3.20370 -36.12347 34924 ft 499 kts 26°
2026-04-29 22:59 -3.14060 -36.09480 34923 ft 499 kts 26°
2026-04-29 23:00 -3.07726 -36.06600 34927 ft 499 kts 26°
2026-04-29 23:00 -3.01397 -36.03724 34929 ft 500 kts 26°
2026-04-29 23:01 -2.95060 -36.00845 34926 ft 500 kts 26°
2026-04-29 23:01 -2.88747 -35.97978 34925 ft 500 kts 25°
2026-04-29 23:02 -2.82409 -35.95101 34929 ft 500 kts 25°
2026-04-29 23:02 -2.76071 -35.92223 34931 ft 499 kts 26°
2026-04-29 23:03 -2.69771 -35.89363 34926 ft 499 kts 26°
2026-04-29 23:03 -2.63438 -35.86489 34927 ft 499 kts 26°
2026-04-29 23:04 -2.57116 -35.83620 34929 ft 499 kts 26°
2026-04-29 23:04 -2.50837 -35.80770 34930 ft 498 kts 26°
2026-04-29 23:05 -2.44502 -35.77895 34928 ft 498 kts 26°
2026-04-29 23:05 -2.38190 -35.75032 34922 ft 498 kts 26°
2026-04-29 23:06 -2.31916 -35.72185 34929 ft 498 kts 26°
2026-04-29 23:06 -2.25594 -35.69317 34929 ft 498 kts 26°
2026-04-29 23:07 -2.19297 -35.66461 34926 ft 498 kts 26°
2026-04-29 23:07 -2.12982 -35.63597 34927 ft 498 kts 25°
2026-04-29 23:08 -2.06656 -35.60728 34928 ft 498 kts 25°
2026-04-29 23:08 -2.00380 -35.57882 34929 ft 498 kts 25°
2026-04-29 23:09 -1.94062 -35.55017 34929 ft 498 kts 26°
2026-04-29 23:09 -1.87739 -35.52150 34929 ft 498 kts 26°
2026-04-29 23:10 -1.81430 -35.49289 34931 ft 498 kts 25°
2026-04-29 23:10 -1.75139 -35.46435 34929 ft 498 kts 26°
2026-04-29 23:11 -1.69006 -35.43212 34931 ft 497 kts 30°
2026-04-29 23:11 -1.62996 -35.39877 34928 ft 497 kts 30°
2026-04-29 23:12 -1.56949 -35.36528 34929 ft 497 kts 30°
2026-04-29 23:12 -1.50871 -35.33184 34929 ft 497 kts 30°
2026-04-29 23:13 -1.44840 -35.29874 34929 ft 497 kts 30°
2026-04-29 23:13 -1.38763 -35.26540 34929 ft 497 kts 30°
2026-04-29 23:14 -1.32687 -35.23206 34929 ft 498 kts 30°
2026-04-29 23:14 -1.26616 -35.19873 34929 ft 498 kts 30°
2026-04-29 23:15 -1.20569 -35.16555 34929 ft 498 kts 30°
2026-04-29 23:15 -1.14487 -35.13217 34929 ft 498 kts 30°
2026-04-29 23:16 -1.08438 -35.09897 34931 ft 498 kts 30°
2026-04-29 23:16 -1.02363 -35.06564 34932 ft 498 kts 30°
2026-04-29 23:17 -0.96271 -35.03221 34929 ft 498 kts 30°
2026-04-29 23:17 -0.90179 -34.99878 34930 ft 498 kts 30°
2026-04-29 23:18 -0.84122 -34.96555 34932 ft 498 kts 30°
2026-04-29 23:18 -0.78027 -34.93211 34931 ft 498 kts 30°
2026-04-29 23:19 -0.71992 -34.89899 34928 ft 497 kts 30°
2026-04-29 23:19 -0.65910 -34.86563 34929 ft 497 kts 30°
2026-04-29 23:20 -0.59842 -34.83234 34930 ft 497 kts 30°
2026-04-29 23:20 -0.53810 -34.79925 34928 ft 497 kts 30°
2026-04-29 23:21 -0.47740 -34.76594 34929 ft 496 kts 30°
2026-04-29 23:21 -0.41684 -34.73272 34927 ft 496 kts 30°
2026-04-29 23:22 -0.35629 -34.69951 34930 ft 496 kts 30°
2026-04-29 23:22 -0.29590 -34.66638 34928 ft 496 kts 30°
2026-04-29 23:23 -0.23528 -34.63313 34929 ft 496 kts 30°
2026-04-29 23:23 -0.17466 -34.59987 34932 ft 496 kts 30°
2026-04-29 23:24 -0.11429 -34.56676 34931 ft 497 kts 30°
2026-04-29 23:24 -0.05364 -34.53349 34931 ft 497 kts 30°
2026-04-29 23:25 0.00695 -34.50025 34931 ft 497 kts 30°
2026-04-29 23:25 0.06724 -34.46718 34932 ft 497 kts 30°
2026-04-29 23:26 0.12791 -34.43390 34931 ft 497 kts 30°
2026-04-29 23:26 0.18858 -34.40062 34931 ft 497 kts 30°
2026-04-29 23:27 0.24924 -34.36734 34929 ft 497 kts 30°
2026-04-29 23:27 0.30957 -34.33425 34931 ft 497 kts 30°
2026-04-29 23:28 0.37015 -34.30101 34932 ft 497 kts 30°
2026-04-29 23:28 0.43090 -34.26768 34931 ft 497 kts 30°
2026-04-29 23:29 0.49119 -34.23461 34928 ft 496 kts 30°
2026-04-29 23:29 0.55188 -34.20131 34930 ft 496 kts 30°
2026-04-29 23:30 0.61214 -34.16825 34934 ft 496 kts 30°
2026-04-29 23:30 0.67279 -34.13497 34934 ft 496 kts 30°
2026-04-29 23:31 0.73312 -34.10187 34934 ft 496 kts 30°
2026-04-29 23:31 0.79372 -34.06861 34934 ft 496 kts 30°
2026-04-29 23:32 0.85435 -34.03534 34934 ft 496 kts 30°
2026-04-29 23:32 0.91502 -34.00205 34934 ft 496 kts 30°
2026-04-29 23:33 0.97550 -33.96885 34936 ft 496 kts 30°
2026-04-29 23:33 1.03578 -33.93576 34933 ft 496 kts 30°
2026-04-29 23:34 1.09644 -33.90245 34934 ft 496 kts 30°
2026-04-29 23:34 1.15696 -33.86921 34934 ft 496 kts 30°
2026-04-29 23:35 1.21750 -33.83597 34937 ft 496 kts 30°
2026-04-29 23:35 1.27773 -33.80289 34937 ft 496 kts 30°
2026-04-29 23:36 1.33836 -33.76959 34937 ft 496 kts 30°
2026-04-29 23:36 1.39859 -33.73650 34937 ft 496 kts 30°
2026-04-29 23:37 1.45924 -33.70319 34937 ft 496 kts 30°
2026-04-29 23:37 1.51949 -33.67009 34935 ft 496 kts 30°
2026-04-29 23:38 1.58004 -33.63682 34940 ft 496 kts 30°
2026-04-29 23:38 1.64065 -33.60350 34937 ft 497 kts 30°
2026-04-29 23:39 1.70140 -33.57015 34941 ft 497 kts 30°
2026-04-29 23:39 1.76173 -33.53699 34941 ft 498 kts 30°
2026-04-29 23:40 1.82233 -33.50368 34943 ft 498 kts 30°
2026-04-29 23:40 1.88326 -33.47020 34943 ft 499 kts 30°
2026-04-29 23:41 1.94405 -33.43677 34941 ft 499 kts 30°
2026-04-29 23:41 2.00459 -33.40348 34943 ft 499 kts 30°
2026-04-29 23:42 2.06572 -33.36989 34942 ft 500 kts 30°
2026-04-29 23:42 2.12640 -33.33651 34943 ft 500 kts 30°
2026-04-29 23:43 2.18751 -33.30288 34945 ft 500 kts 30°
2026-04-29 23:43 2.24863 -33.26924 34946 ft 500 kts 30°
2026-04-29 23:44 2.30933 -33.23585 34943 ft 500 kts 30°
2026-04-29 23:44 2.36014 -33.20790 34943 ft 500 kts 30°
2026-04-29 23:45 2.42129 -33.17424 34945 ft 500 kts 30°
2026-04-29 23:45 2.48237 -33.14063 34944 ft 500 kts 30°
2026-04-29 23:46 2.54305 -33.10723 34945 ft 500 kts 30°
2026-04-29 23:46 2.60423 -33.07363 34944 ft 500 kts 29°
2026-04-29 23:47 2.66531 -33.03994 34945 ft 500 kts 30°
2026-04-29 23:47 2.72606 -33.00647 34949 ft 501 kts 30°
2026-04-29 23:48 2.78712 -32.97286 34953 ft 501 kts 30°
2026-04-29 23:48 2.84819 -32.93923 34951 ft 501 kts 30°
2026-04-29 23:49 2.90935 -32.90555 34949 ft 501 kts 30°
2026-04-29 23:49 2.97052 -32.87185 34945 ft 501 kts 30°
2026-04-29 23:50 3.03146 -32.83827 34951 ft 501 kts 29°
2026-04-29 23:51 3.12300 -32.78783 34945 ft 501 kts 30°
2026-04-29 23:51 3.18419 -32.75411 34947 ft 501 kts 30°
2026-04-29 23:52 3.24551 -32.72031 34949 ft 501 kts 29°
2026-04-29 23:52 3.30642 -32.68672 34951 ft 501 kts 29°
2026-04-29 23:53 3.36760 -32.65298 34956 ft 501 kts 29°
2026-04-29 23:53 3.42842 -32.61944 34955 ft 501 kts 30°
2026-04-29 23:54 3.48969 -32.58570 34951 ft 501 kts 30°
2026-04-29 23:54 3.55090 -32.55202 34952 ft 501 kts 29°
2026-04-29 23:55 3.61162 -32.51858 34952 ft 501 kts 29°
2026-04-29 23:55 3.67299 -32.48479 34953 ft 502 kts 29°
2026-04-29 23:56 3.73392 -32.45121 34955 ft 502 kts 29°
2026-04-29 23:56 3.79526 -32.41739 34955 ft 502 kts 29°
2026-04-29 23:57 3.85667 -32.38353 34955 ft 503 kts 29°
2026-04-29 23:57 3.91799 -32.34972 34952 ft 503 kts 29°
2026-04-29 23:58 3.97903 -32.31608 34951 ft 504 kts 29°
2026-04-29 23:58 4.04060 -32.28212 34953 ft 504 kts 29°
2026-04-29 23:59 4.10216 -32.24815 34954 ft 505 kts 29°
2026-04-29 23:59 4.16339 -32.21437 34954 ft 505 kts 29°
2026-04-30 00:00 4.22494 -32.18040 34954 ft 505 kts 29°
2026-04-30 00:00 4.28661 -32.14637 34956 ft 505 kts 29°
2026-04-30 00:01 4.34838 -32.11227 34955 ft 506 kts 29°
2026-04-30 00:01 4.40985 -32.07833 34951 ft 506 kts 29°
2026-04-30 00:02 4.47167 -32.04419 34952 ft 506 kts 29°
2026-04-30 00:02 4.53314 -32.01024 34958 ft 506 kts 29°
2026-04-30 00:03 4.59507 -31.97603 34955 ft 506 kts 29°
2026-04-30 00:03 4.65674 -31.94195 34954 ft 507 kts 29°
2026-04-30 00:04 4.71821 -31.90798 34955 ft 507 kts 29°
2026-04-30 00:04 4.77996 -31.87384 34954 ft 507 kts 29°
2026-04-30 00:05 4.84192 -31.83959 34959 ft 507 kts 29°
2026-04-30 00:05 4.90343 -31.80557 34960 ft 507 kts 29°
2026-04-30 00:06 4.96532 -31.77134 34960 ft 507 kts 29°
2026-04-30 00:06 5.02714 -31.73713 34960 ft 507 kts 29°
2026-04-30 00:07 5.08856 -31.70313 34958 ft 507 kts 29°
2026-04-30 00:07 5.15040 -31.66890 34956 ft 507 kts 29°
2026-04-30 00:08 5.21238 -31.63458 34961 ft 507 kts 29°
2026-04-30 00:08 5.27376 -31.60032 34963 ft 507 kts 29°
2026-04-30 00:09 5.33548 -31.56557 34966 ft 507 kts 29°
2026-04-30 00:09 5.39715 -31.53083 34965 ft 508 kts 29°
2026-04-30 00:10 5.45845 -31.49634 34964 ft 508 kts 29°
2026-04-30 00:10 5.52018 -31.46162 34963 ft 508 kts 29°
2026-04-30 00:11 5.58184 -31.42697 34967 ft 508 kts 29°
2026-04-30 00:11 5.64330 -31.39234 34966 ft 508 kts 29°
2026-04-30 00:12 5.70503 -31.35763 34969 ft 508 kts 29°
2026-04-30 00:12 5.76641 -31.32308 34967 ft 508 kts 29°
2026-04-30 00:13 5.82820 -31.28827 34966 ft 508 kts 29°
2026-04-30 00:13 5.88999 -31.25346 34969 ft 508 kts 29°
2026-04-30 00:14 5.95137 -31.21888 34968 ft 508 kts 29°
2026-04-30 00:14 6.01319 -31.18404 34974 ft 508 kts 29°
2026-04-30 00:15 6.07449 -31.14948 34975 ft 508 kts 29°
2026-04-30 00:15 6.13643 -31.11456 34974 ft 508 kts 29°
2026-04-30 00:16 6.19776 -31.07997 34972 ft 508 kts 29°
2026-04-30 00:16 6.25956 -31.04511 34977 ft 508 kts 29°
2026-04-30 00:17 6.32129 -31.01027 34974 ft 508 kts 29°
2026-04-30 00:17 6.38265 -30.97564 34977 ft 508 kts 29°
2026-04-30 00:18 6.44443 -30.94075 34975 ft 508 kts 29°
2026-04-30 00:18 6.50588 -30.90605 34975 ft 508 kts 29°
2026-04-30 00:19 6.56794 -30.87099 34978 ft 508 kts 29°
2026-04-30 00:19 6.62934 -30.83629 34977 ft 508 kts 29°
2026-04-30 00:20 6.69064 -30.80164 34979 ft 507 kts 29°
2026-04-30 00:20 6.75235 -30.76675 34978 ft 507 kts 29°
2026-04-30 00:21 6.81365 -30.73207 34979 ft 507 kts 29°
2026-04-30 00:21 6.87521 -30.69725 34981 ft 507 kts 29°
2026-04-30 00:22 6.93682 -30.66238 34981 ft 507 kts 29°
2026-04-30 00:22 6.99802 -30.62773 34986 ft 507 kts 29°
2026-04-30 00:23 7.05965 -30.59284 34984 ft 507 kts 29°
2026-04-30 00:23 7.12086 -30.55816 34984 ft 507 kts 29°
2026-04-30 00:24 7.18252 -30.52322 34986 ft 507 kts 29°
2026-04-30 00:24 7.24414 -30.48830 34987 ft 508 kts 29°
2026-04-30 00:25 7.30549 -30.45351 34987 ft 508 kts 29°
2026-04-30 00:25 7.36718 -30.41853 34990 ft 507 kts 29°
2026-04-30 00:26 7.42851 -30.38373 34990 ft 507 kts 29°
2026-04-30 00:26 7.49015 -30.34875 34992 ft 507 kts 29°
2026-04-30 00:27 7.55179 -30.31375 34990 ft 507 kts 29°
2026-04-30 00:27 7.61291 -30.27903 34991 ft 507 kts 29°
2026-04-30 00:28 7.67441 -30.24415 34992 ft 506 kts 29°
2026-04-30 00:28 7.73556 -30.20938 34992 ft 506 kts 29°
2026-04-30 00:29 7.79701 -30.17443 34990 ft 506 kts 29°
2026-04-30 00:29 7.85832 -30.13955 34991 ft 505 kts 29°
2026-04-30 00:30 7.91932 -30.10485 34993 ft 505 kts 29°
2026-04-30 00:30 7.98070 -30.06992 34998 ft 505 kts 29°
2026-04-30 00:31 8.04167 -30.03521 35001 ft 505 kts 29°
2026-04-30 00:31 8.09274 -30.00613 34998 ft 505 kts 29°
2026-04-30 00:32 8.15414 -29.97115 34998 ft 505 kts 29°
2026-04-30 00:32 8.21547 -29.93620 34999 ft 506 kts 29°
2026-04-30 00:33 8.27650 -29.90141 35000 ft 506 kts 28°
2026-04-30 00:33 8.33791 -29.86639 35002 ft 506 kts 28°
2026-04-30 00:34 8.39896 -29.83156 35003 ft 506 kts 28°
2026-04-30 00:34 8.46035 -29.79652 35004 ft 505 kts 28°
2026-04-30 00:35 8.52132 -29.76173 35005 ft 505 kts 28°
2026-04-30 00:35 8.58256 -29.72680 35008 ft 505 kts 28°
2026-04-30 00:36 8.64392 -29.69180 35003 ft 505 kts 28°
2026-04-30 00:36 8.70470 -29.65709 35005 ft 504 kts 28°
2026-04-30 00:37 8.76583 -29.62215 35007 ft 504 kts 28°
2026-04-30 00:37 8.82692 -29.58722 35005 ft 504 kts 28°
2026-04-30 00:38 8.88792 -29.55234 35010 ft 503 kts 28°
2026-04-30 00:38 8.94876 -29.51755 35013 ft 503 kts 28°
2026-04-30 00:39 9.00957 -29.48274 35008 ft 503 kts 28°
2026-04-30 00:39 9.07060 -29.44784 35012 ft 503 kts 28°
2026-04-30 00:40 9.13119 -29.41313 35011 ft 502 kts 28°
2026-04-30 00:40 9.19209 -29.37822 35011 ft 502 kts 28°
2026-04-30 00:41 9.25306 -29.34328 35012 ft 502 kts 28°
2026-04-30 00:41 9.31368 -29.30852 35014 ft 502 kts 28°
2026-04-30 00:42 9.37460 -29.27357 35016 ft 502 kts 28°
2026-04-30 00:42 9.43516 -29.23882 35015 ft 502 kts 28°
2026-04-30 00:43 9.49613 -29.20382 35016 ft 502 kts 28°
2026-04-30 00:43 9.55703 -29.16885 35017 ft 503 kts 28°
2026-04-30 00:44 9.61773 -29.13397 35017 ft 503 kts 28°
2026-04-30 00:44 9.67837 -29.09911 35019 ft 503 kts 28°
2026-04-30 00:45 9.73939 -29.06401 35017 ft 503 kts 28°
2026-04-30 00:45 9.80036 -29.02893 35020 ft 503 kts 28°
2026-04-30 00:46 9.86086 -28.99411 35021 ft 503 kts 28°
2026-04-30 00:46 9.92184 -28.95899 35022 ft 503 kts 28°
2026-04-30 00:47 9.98251 -28.92400 35019 ft 502 kts 27°
2026-04-30 00:47 10.04343 -28.88892 35017 ft 502 kts 27°
2026-04-30 00:48 10.10378 -28.85409 35019 ft 502 kts 28°
2026-04-30 00:48 10.16452 -28.81900 35019 ft 502 kts 28°
2026-04-30 00:49 10.22517 -28.78396 35018 ft 501 kts 28°
2026-04-30 00:49 10.28600 -28.74882 35020 ft 501 kts 27°
2026-04-30 00:50 10.34628 -28.71397 35020 ft 501 kts 27°
2026-04-30 00:50 10.40710 -28.67880 35019 ft 501 kts 27°
2026-04-30 00:51 10.46755 -28.64383 35021 ft 501 kts 27°
2026-04-30 00:51 10.52825 -28.60870 35024 ft 501 kts 27°
2026-04-30 00:52 10.58868 -28.57371 35025 ft 501 kts 27°
2026-04-30 00:52 10.64938 -28.53854 35023 ft 502 kts 27°
2026-04-30 00:53 10.71019 -28.50330 35023 ft 502 kts 27°
2026-04-30 00:53 10.77055 -28.46829 35028 ft 502 kts 27°
2026-04-30 00:54 10.83145 -28.43296 35029 ft 503 kts 27°
2026-04-30 00:54 10.89228 -28.39766 35027 ft 503 kts 27°
2026-04-30 00:55 10.95272 -28.36256 35026 ft 503 kts 27°
2026-04-30 00:55 11.04406 -28.30949 35028 ft 503 kts 27°
2026-04-30 00:56 11.10460 -28.27429 35027 ft 503 kts 27°
2026-04-30 00:56 11.16545 -28.23890 35030 ft 503 kts 27°
2026-04-30 00:57 11.22634 -28.20347 35029 ft 503 kts 27°
2026-04-30 00:57 11.28722 -28.16802 35030 ft 503 kts 27°
2026-04-30 00:58 11.34777 -28.13275 35028 ft 503 kts 27°
2026-04-30 00:58 11.40865 -28.09726 35031 ft 503 kts 27°
2026-04-30 00:59 11.46919 -28.06196 35028 ft 503 kts 27°
2026-04-30 00:59 11.53006 -28.02645 35033 ft 503 kts 27°
2026-04-30 01:00 11.59089 -27.99094 35036 ft 503 kts 27°
2026-04-30 01:00 11.65182 -27.95536 35041 ft 503 kts 27°
2026-04-30 01:01 11.71234 -27.92000 35035 ft 503 kts 27°
2026-04-30 01:01 11.77312 -27.88447 35036 ft 503 kts 27°
2026-04-30 01:02 11.83401 -27.84886 35036 ft 503 kts 27°
2026-04-30 01:02 11.89453 -27.81344 35034 ft 503 kts 27°
2026-04-30 01:03 11.95533 -27.77785 35034 ft 503 kts 27°
2026-04-30 01:03 12.01580 -27.74242 35038 ft 502 kts 27°
2026-04-30 01:04 12.07643 -27.70688 35037 ft 502 kts 27°
2026-04-30 01:04 12.13709 -27.67132 35034 ft 502 kts 27°
2026-04-30 01:05 12.19762 -27.63580 35035 ft 501 kts 27°
2026-04-30 01:05 12.25790 -27.60042 35035 ft 501 kts 27°
2026-04-30 01:06 12.31851 -27.56481 35036 ft 501 kts 27°
2026-04-30 01:06 12.37899 -27.52928 35041 ft 500 kts 27°
2026-04-30 01:07 12.43909 -27.49394 35037 ft 500 kts 27°
2026-04-30 01:07 12.49946 -27.45842 35037 ft 500 kts 27°
2026-04-30 01:08 12.55979 -27.42291 35038 ft 499 kts 27°
2026-04-30 01:08 12.61975 -27.38760 35038 ft 499 kts 27°
2026-04-30 01:09 12.68008 -27.35205 35039 ft 499 kts 27°
2026-04-30 01:09 12.74044 -27.31647 35040 ft 499 kts 27°
2026-04-30 01:10 12.80038 -27.28110 35038 ft 499 kts 27°
2026-04-30 01:10 12.86070 -27.24550 35038 ft 499 kts 27°
2026-04-30 01:11 12.92060 -27.21013 35042 ft 499 kts 27°
2026-04-30 01:11 12.98089 -27.17450 35037 ft 499 kts 27°
2026-04-30 01:12 13.04115 -27.13887 35034 ft 499 kts 27°
2026-04-30 01:12 13.10110 -27.10341 35039 ft 499 kts 27°
2026-04-30 01:13 13.16113 -27.06788 35039 ft 499 kts 27°
2026-04-30 01:13 13.22138 -27.03219 35039 ft 499 kts 27°
2026-04-30 01:14 13.28139 -26.99663 35039 ft 500 kts 27°
2026-04-30 01:14 13.34167 -26.96089 35039 ft 500 kts 27°
2026-04-30 01:15 13.40200 -26.92510 35045 ft 500 kts 27°
2026-04-30 01:15 13.46222 -26.88935 35039 ft 500 kts 27°
2026-04-30 01:16 13.52222 -26.85371 35044 ft 500 kts 27°
2026-04-30 01:16 13.58266 -26.81779 35044 ft 499 kts 27°
2026-04-30 01:17 13.64254 -26.78218 35044 ft 499 kts 27°
2026-04-30 01:17 13.70280 -26.74633 35041 ft 499 kts 27°
2026-04-30 01:18 13.76260 -26.71072 35048 ft 499 kts 27°
2026-04-30 01:18 13.81262 -26.68092 35044 ft 499 kts 27°
2026-04-30 01:19 13.87282 -26.64504 35042 ft 499 kts 27°
2026-04-30 01:19 13.93265 -26.60935 35045 ft 498 kts 27°
2026-04-30 01:20 13.99279 -26.57346 35045 ft 498 kts 27°
2026-04-30 01:20 14.05251 -26.53781 35045 ft 498 kts 27°
2026-04-30 01:21 14.11259 -26.50190 35049 ft 498 kts 27°
2026-04-30 01:21 14.17272 -26.46595 35052 ft 498 kts 27°
2026-04-30 01:22 14.23244 -26.43022 35037 ft 498 kts 27°
2026-04-30 01:22 14.29250 -26.39426 35037 ft 499 kts 27°
2026-04-30 01:23 14.35223 -26.35848 35056 ft 499 kts 27°
2026-04-30 01:23 14.41238 -26.32245 35069 ft 499 kts 27°
2026-04-30 01:24 14.47251 -26.28641 35044 ft 499 kts 27°
2026-04-30 01:24 14.53228 -26.25055 35047 ft 499 kts 27°
2026-04-30 01:25 14.59253 -26.21437 35049 ft 499 kts 27°
2026-04-30 01:25 14.65234 -26.17844 35053 ft 500 kts 27°
2026-04-30 01:26 14.71263 -26.14219 35052 ft 500 kts 27°
2026-04-30 01:26 14.77253 -26.10615 35059 ft 500 kts 26°
2026-04-30 01:27 14.83271 -26.06992 35056 ft 500 kts 26°
2026-04-30 01:27 14.89271 -26.03378 35052 ft 501 kts 26°
2026-04-30 01:28 14.95299 -25.99744 35050 ft 501 kts 26°
2026-04-30 01:28 15.01341 -25.96100 35052 ft 501 kts 27°
2026-04-30 01:29 15.07330 -25.92484 35052 ft 501 kts 26°
2026-04-30 01:29 15.13362 -25.88841 35061 ft 501 kts 26°
2026-04-30 01:30 15.19412 -25.85185 35054 ft 501 kts 26°
2026-04-30 01:30 15.25397 -25.81565 35053 ft 501 kts 26°
2026-04-30 01:31 15.31440 -25.77908 35055 ft 501 kts 26°
2026-04-30 01:31 15.37441 -25.74274 35056 ft 501 kts 26°
2026-04-30 01:32 15.43459 -25.70627 35052 ft 501 kts 26°
2026-04-30 01:32 15.49489 -25.66970 35057 ft 501 kts 26°
2026-04-30 01:33 15.55507 -25.63318 35055 ft 501 kts 26°
2026-04-30 01:33 15.61493 -25.59683 35056 ft 500 kts 26°
2026-04-30 01:34 15.67514 -25.56024 35055 ft 500 kts 26°
2026-04-30 01:34 15.73533 -25.52364 35053 ft 500 kts 26°
2026-04-30 01:35 15.79496 -25.48735 35070 ft 500 kts 26°
2026-04-30 01:35 15.85512 -25.45072 35059 ft 500 kts 26°
2026-04-30 01:36 15.91527 -25.41407 35056 ft 500 kts 26°
2026-04-30 01:36 15.97536 -25.37742 35054 ft 500 kts 26°
2026-04-30 01:37 16.03504 -25.34101 35049 ft 500 kts 26°
2026-04-30 01:37 16.09524 -25.30424 35048 ft 500 kts 26°
2026-04-30 01:38 16.15530 -25.26754 35054 ft 500 kts 25°
2026-04-30 01:38 16.21501 -25.23103 35051 ft 500 kts 25°
2026-04-30 01:39 16.27507 -25.19428 35040 ft 500 kts 25°
2026-04-30 01:39 16.33473 -25.15774 35038 ft 499 kts 25°
2026-04-30 01:40 16.39480 -25.12092 35044 ft 499 kts 25°
2026-04-30 01:40 16.45464 -25.08423 35031 ft 499 kts 25°
2026-04-30 01:41 16.51413 -25.04772 35036 ft 499 kts 25°
2026-04-30 01:41 16.57406 -25.01091 35037 ft 499 kts 25°
2026-04-30 01:42 16.63387 -24.97416 35041 ft 499 kts 25°
2026-04-30 01:42 16.69331 -24.93760 35039 ft 499 kts 25°
2026-04-30 01:43 16.75325 -24.90070 35044 ft 499 kts 25°
2026-04-30 01:43 16.81314 -24.86382 35044 ft 499 kts 25°
2026-04-30 01:44 16.87309 -24.82685 35052 ft 499 kts 25°
2026-04-30 01:44 16.93258 -24.79016 35027 ft 499 kts 25°
2026-04-30 01:45 16.99256 -24.75313 35059 ft 499 kts 25°
2026-04-30 01:45 17.05226 -24.71624 35066 ft 498 kts 25°
2026-04-30 01:46 17.11170 -24.67950 35061 ft 498 kts 25°
2026-04-30 01:46 17.17145 -24.64253 35052 ft 498 kts 25°
2026-04-30 01:47 17.23091 -24.60571 35057 ft 498 kts 25°
2026-04-30 01:47 17.29061 -24.56871 35062 ft 498 kts 25°
2026-04-30 01:48 17.35034 -24.53167 35062 ft 498 kts 25°
2026-04-30 01:48 17.40960 -24.49489 35063 ft 497 kts 25°
2026-04-30 01:49 17.46928 -24.45783 35063 ft 497 kts 25°
2026-04-30 01:49 17.52861 -24.42094 35077 ft 497 kts 25°
2026-04-30 01:50 17.58822 -24.38386 35069 ft 498 kts 24°
2026-04-30 01:50 17.64791 -24.34670 35062 ft 498 kts 24°
2026-04-30 01:51 17.70718 -24.30976 35060 ft 498 kts 24°
2026-04-30 01:51 17.76688 -24.27257 35113 ft 500 kts 24°
2026-04-30 01:52 17.79648 -24.25413 35287 ft 500 kts 24°
2026-04-30 01:52 17.82637 -24.23550 35535 ft 499 kts 24°
2026-04-30 01:52 17.85619 -24.21688 35749 ft 499 kts 24°
2026-04-30 01:52 17.88609 -24.19821 35937 ft 499 kts 24°
2026-04-30 01:53 17.91594 -24.17956 36146 ft 499 kts 24°
2026-04-30 01:53 17.94581 -24.16091 36320 ft 499 kts 24°
2026-04-30 01:53 17.97567 -24.14224 36506 ft 500 kts 24°
2026-04-30 01:53 18.00555 -24.12356 36675 ft 500 kts 24°
2026-04-30 01:54 18.03556 -24.10478 36851 ft 500 kts 24°
2026-04-30 01:54 18.06506 -24.08632 36962 ft 501 kts 24°
2026-04-30 01:54 18.12521 -24.04868 37058 ft 503 kts 24°
2026-04-30 01:55 18.18545 -24.01091 37058 ft 502 kts 24°
2026-04-30 01:55 18.24539 -23.97329 37067 ft 500 kts 24°
2026-04-30 01:56 18.30474 -23.93602 37062 ft 499 kts 24°
2026-04-30 01:56 18.36436 -23.89857 37067 ft 497 kts 24°
2026-04-30 01:57 18.42351 -23.86138 37066 ft 496 kts 24°
2026-04-30 01:57 18.48296 -23.82398 37070 ft 496 kts 24°
2026-04-30 01:58 18.54188 -23.78688 37068 ft 496 kts 24°
2026-04-30 01:58 18.60152 -23.74929 37084 ft 497 kts 23°
2026-04-30 01:59 18.69027 -23.69331 37070 ft 497 kts 23°
2026-04-30 02:00 18.74973 -23.65575 37066 ft 497 kts 23°
2026-04-30 02:00 18.80888 -23.61835 37071 ft 497 kts 23°
2026-04-30 02:01 18.86832 -23.58075 37072 ft 497 kts 23°
2026-04-30 02:01 18.92777 -23.54311 37066 ft 498 kts 22°
2026-04-30 02:02 18.98718 -23.50546 37074 ft 497 kts 22°
2026-04-30 02:02 19.04613 -23.46807 37071 ft 497 kts 22°
2026-04-30 02:03 19.10548 -23.43039 37070 ft 496 kts 22°
2026-04-30 02:03 19.16443 -23.39294 37075 ft 496 kts 22°
2026-04-30 02:04 19.22366 -23.35529 37064 ft 496 kts 22°
2026-04-30 02:04 19.28300 -23.31752 37077 ft 496 kts 22°
2026-04-30 02:05 19.34182 -23.28007 37067 ft 496 kts 22°
2026-04-30 02:05 19.40113 -23.24225 37069 ft 496 kts 22°
2026-04-30 02:06 19.46002 -23.20468 37071 ft 496 kts 22°
2026-04-30 02:06 19.50920 -23.17328 37071 ft 495 kts 22°
2026-04-30 02:07 19.56822 -23.13557 37069 ft 495 kts 22°
2026-04-30 02:07 19.62737 -23.09774 37084 ft 496 kts 22°
2026-04-30 02:08 19.68662 -23.05981 37073 ft 496 kts 22°
2026-04-30 02:08 19.74543 -23.02213 37068 ft 496 kts 22°
2026-04-30 02:09 19.80469 -22.98413 37067 ft 496 kts 22°
2026-04-30 02:09 19.86352 -22.94637 37062 ft 496 kts 22°
2026-04-30 02:10 19.92269 -22.90836 37071 ft 496 kts 22°
2026-04-30 02:10 19.98193 -22.87027 37068 ft 496 kts 22°
2026-04-30 02:11 20.04070 -22.83245 37069 ft 496 kts 22°
2026-04-30 02:11 20.09978 -22.79440 37070 ft 496 kts 22°
2026-04-30 02:12 20.15887 -22.75631 37061 ft 496 kts 22°
2026-04-30 02:12 20.21797 -22.71818 37080 ft 496 kts 22°
2026-04-30 02:13 20.27704 -22.68003 37078 ft 496 kts 21°
2026-04-30 02:13 20.33585 -22.64202 37066 ft 497 kts 21°
2026-04-30 02:14 20.39510 -22.60368 37070 ft 496 kts 21°
2026-04-30 02:14 20.45394 -22.56557 37069 ft 496 kts 21°
2026-04-30 02:15 20.51309 -22.52723 37064 ft 496 kts 21°
2026-04-30 02:15 20.57187 -22.48910 37067 ft 496 kts 21°
2026-04-30 02:16 20.63086 -22.45079 37087 ft 496 kts 21°
2026-04-30 02:16 20.68955 -22.41265 37066 ft 496 kts 21°
2026-04-30 02:17 20.74892 -22.37402 37068 ft 496 kts 21°
2026-04-30 02:17 20.80762 -22.33580 37064 ft 496 kts 21°
2026-04-30 02:18 20.86675 -22.29726 37064 ft 496 kts 21°
2026-04-30 02:18 20.92540 -22.25900 37066 ft 496 kts 21°
2026-04-30 02:19 20.98451 -22.22041 37071 ft 497 kts 21°
2026-04-30 02:19 21.04315 -22.18208 37065 ft 497 kts 21°
2026-04-30 02:20 21.10226 -22.14341 37067 ft 497 kts 21°
2026-04-30 02:20 21.16135 -22.10471 37064 ft 497 kts 21°
2026-04-30 02:21 21.22017 -22.06615 37069 ft 497 kts 21°
2026-04-30 02:21 21.27886 -22.02764 37101 ft 497 kts 22°
2026-04-30 02:22 21.33803 -21.98877 37071 ft 497 kts 22°
2026-04-30 02:22 21.39678 -21.95016 37067 ft 497 kts 22°
2026-04-30 02:23 21.45591 -21.91127 37068 ft 497 kts 22°
2026-04-30 02:23 21.51493 -21.87240 37068 ft 497 kts 22°
2026-04-30 02:24 21.57400 -21.83345 37068 ft 497 kts 22°
2026-04-30 02:24 21.63254 -21.79482 37093 ft 497 kts 22°
2026-04-30 02:25 21.69154 -21.75585 37086 ft 497 kts 22°
2026-04-30 02:25 21.75053 -21.71684 37068 ft 497 kts 22°
2026-04-30 02:26 21.80947 -21.67782 37070 ft 497 kts 22°
2026-04-30 02:26 21.86804 -21.63901 37066 ft 496 kts 22°
2026-04-30 02:27 21.92691 -21.59997 37068 ft 496 kts 22°
2026-04-30 02:27 21.98578 -21.56089 37077 ft 496 kts 22°
2026-04-30 02:28 22.04467 -21.52176 37078 ft 496 kts 22°
2026-04-30 02:28 22.10310 -21.48289 37067 ft 496 kts 22°
2026-04-30 02:29 22.16193 -21.44372 37075 ft 496 kts 23°
2026-04-30 02:29 22.22035 -21.40478 37068 ft 496 kts 23°
2026-04-30 02:30 22.27899 -21.36566 37069 ft 495 kts 23°
2026-04-30 02:30 22.33768 -21.32646 37074 ft 495 kts 23°
2026-04-30 02:31 22.39612 -21.28740 37067 ft 495 kts 23°
2026-04-30 02:31 22.45469 -21.24820 37068 ft 495 kts 23°
2026-04-30 02:32 22.51329 -21.20895 37067 ft 495 kts 23°
2026-04-30 02:32 22.57147 -21.16994 37065 ft 494 kts 23°
2026-04-30 02:33 22.63008 -21.13060 37110 ft 495 kts 23°
2026-04-30 02:33 22.68870 -21.09122 37068 ft 495 kts 23°
2026-04-30 02:34 22.74697 -21.05202 37066 ft 495 kts 23°
2026-04-30 02:34 22.80565 -21.01251 37067 ft 495 kts 23°
2026-04-30 02:35 22.86393 -20.97322 37067 ft 495 kts 23°
2026-04-30 02:35 22.92260 -20.93364 37066 ft 495 kts 23°
2026-04-30 02:36 22.98123 -20.89404 37078 ft 496 kts 24°
2026-04-30 02:36 23.03994 -20.85434 37068 ft 496 kts 24°
2026-04-30 02:37 23.09822 -20.81490 37060 ft 496 kts 24°
2026-04-30 02:37 23.15694 -20.77517 37066 ft 497 kts 24°
2026-04-30 02:38 23.21576 -20.73532 37063 ft 497 kts 24°
2026-04-30 02:38 23.27414 -20.69571 37063 ft 497 kts 24°
2026-04-30 02:39 23.33298 -20.65573 37064 ft 498 kts 24°
2026-04-30 02:39 23.39144 -20.61597 37066 ft 498 kts 24°
2026-04-30 02:40 23.45027 -20.57593 37064 ft 498 kts 24°
2026-04-30 02:40 23.50881 -20.53604 37062 ft 498 kts 24°
2026-04-30 02:41 23.56767 -20.49588 37064 ft 498 kts 24°
2026-04-30 02:41 23.62647 -20.45573 37093 ft 498 kts 24°
2026-04-30 02:42 23.68540 -20.41544 37064 ft 499 kts 24°
2026-04-30 02:42 23.74376 -20.37549 37061 ft 498 kts 24°
2026-04-30 02:43 23.80249 -20.33525 37064 ft 498 kts 24°
2026-04-30 02:43 23.86125 -20.29495 37061 ft 497 kts 24°
2026-04-30 02:44 23.91990 -20.25468 37059 ft 497 kts 24°
2026-04-30 02:44 23.97812 -20.21467 37064 ft 497 kts 24°
2026-04-30 02:45 24.03671 -20.17435 37061 ft 497 kts 24°
2026-04-30 02:45 24.09537 -20.13394 37077 ft 496 kts 24°
2026-04-30 02:46 24.15342 -20.09390 37065 ft 496 kts 24°
2026-04-30 02:46 24.21198 -20.05348 37056 ft 496 kts 24°
2026-04-30 02:47 24.27009 -20.01332 37059 ft 495 kts 24°
2026-04-30 02:47 24.32851 -19.97290 37064 ft 495 kts 24°
2026-04-30 02:48 24.38649 -19.93274 37055 ft 495 kts 24°
2026-04-30 02:48 24.44471 -19.89236 37063 ft 494 kts 24°
2026-04-30 02:49 24.50290 -19.85197 37060 ft 494 kts 24°
2026-04-30 02:49 24.56067 -19.81182 37058 ft 493 kts 24°
2026-04-30 02:50 24.61889 -19.77132 37091 ft 494 kts 23°
2026-04-30 02:50 24.67661 -19.73112 37064 ft 494 kts 23°
2026-04-30 02:51 24.73471 -19.69061 37063 ft 493 kts 23°
2026-04-30 02:51 24.79231 -19.65039 37043 ft 492 kts 23°
2026-04-30 02:52 24.85019 -19.60994 37062 ft 492 kts 23°
2026-04-30 02:52 24.90805 -19.56945 37065 ft 491 kts 23°
2026-04-30 02:53 24.96545 -19.52925 37064 ft 492 kts 23°
2026-04-30 02:53 25.02319 -19.48875 37060 ft 491 kts 23°
2026-04-30 02:54 25.07123 -19.45502 37075 ft 491 kts 23°
2026-04-30 02:54 25.12879 -19.41455 37064 ft 490 kts 23°
2026-04-30 02:55 25.18648 -19.37394 37055 ft 490 kts 23°
2026-04-30 02:55 25.24361 -19.33366 37056 ft 489 kts 23°
2026-04-30 02:56 25.30106 -19.29313 37060 ft 489 kts 23°
2026-04-30 02:56 25.35850 -19.25255 37059 ft 488 kts 23°
2026-04-30 02:57 25.41530 -19.21236 37059 ft 487 kts 23°
2026-04-30 02:57 25.47244 -19.17191 37060 ft 487 kts 23°
2026-04-30 02:58 25.52962 -19.13137 37057 ft 486 kts 23°
2026-04-30 02:58 25.58631 -19.09115 37111 ft 486 kts 23°
2026-04-30 02:59 25.64346 -19.05054 37065 ft 486 kts 23°
2026-04-30 02:59 25.69998 -19.01033 37040 ft 485 kts 23°
2026-04-30 03:00 25.75679 -18.96986 37057 ft 483 kts 23°
2026-04-30 03:00 25.81300 -18.92978 37060 ft 482 kts 23°
2026-04-30 03:01 25.86945 -18.88949 37057 ft 481 kts 23°
2026-04-30 03:01 25.92545 -18.84947 37069 ft 481 kts 23°
2026-04-30 03:02 25.98177 -18.80918 37057 ft 480 kts 23°
2026-04-30 03:02 26.03813 -18.76882 37056 ft 480 kts 23°
2026-04-30 03:03 26.09424 -18.72860 37055 ft 479 kts 23°
2026-04-30 03:03 26.17820 -18.66832 37057 ft 479 kts 23°
2026-04-30 03:04 26.23421 -18.62804 37087 ft 479 kts 23°
2026-04-30 03:04 26.29009 -18.58781 37061 ft 480 kts 23°
2026-04-30 03:05 26.34623 -18.54733 37053 ft 479 kts 23°
2026-04-30 03:05 26.40186 -18.50718 37050 ft 478 kts 23°
2026-04-30 03:06 26.45784 -18.46673 37053 ft 478 kts 23°
2026-04-30 03:06 26.51370 -18.42632 37068 ft 478 kts 23°
2026-04-30 03:07 26.56917 -18.38615 37058 ft 477 kts 23°
2026-04-30 03:07 26.62489 -18.34574 37051 ft 476 kts 23°
2026-04-30 03:08 26.68064 -18.30527 37057 ft 476 kts 23°
2026-04-30 03:08 26.73618 -18.26490 37055 ft 475 kts 23°
2026-04-30 03:09 26.79135 -18.22476 37055 ft 475 kts 23°
2026-04-30 03:09 26.84686 -18.18432 37056 ft 475 kts 23°
2026-04-30 03:10 26.90235 -18.14385 37046 ft 475 kts 24°
2026-04-30 03:10 26.95746 -18.10360 37047 ft 474 kts 24°
2026-04-30 03:11 27.01280 -18.06314 37055 ft 474 kts 24°
2026-04-30 03:11 27.06802 -18.02270 37049 ft 473 kts 24°
2026-04-30 03:12 27.12270 -17.98262 37053 ft 471 kts 24°
2026-04-30 03:12 27.17761 -17.94233 37051 ft 470 kts 24°
2026-04-30 03:13 27.23253 -17.90199 37054 ft 470 kts 24°
2026-04-30 03:13 27.28688 -17.86202 37047 ft 468 kts 24°
2026-04-30 03:14 27.34141 -17.82186 37048 ft 467 kts 24°
2026-04-30 03:14 27.39576 -17.78179 37049 ft 467 kts 24°
2026-04-30 03:15 27.44980 -17.74191 37091 ft 466 kts 24°
2026-04-30 03:15 27.50413 -17.70177 37058 ft 467 kts 24°
2026-04-30 03:16 27.55853 -17.66152 37049 ft 467 kts 24°
2026-04-30 03:16 27.61289 -17.62123 37052 ft 466 kts 24°
2026-04-30 03:17 27.66704 -17.58106 37055 ft 466 kts 24°
2026-04-30 03:17 27.72091 -17.54107 37051 ft 466 kts 24°
2026-04-30 03:18 27.77522 -17.50069 37052 ft 466 kts 24°
2026-04-30 03:18 27.82903 -17.46063 37079 ft 466 kts 24°
2026-04-30 03:19 27.88321 -17.42024 37058 ft 466 kts 25°
2026-04-30 03:19 27.93740 -17.37980 37051 ft 466 kts 25°
2026-04-30 03:20 27.99128 -17.33957 37045 ft 466 kts 25°
2026-04-30 03:20 28.04732 -17.30406 37145 ft 461 kts 19°
2026-04-30 03:21 28.07581 -17.28738 37359 ft 460 kts 19°
2026-04-30 03:21 28.10431 -17.27072 37603 ft 460 kts 19°
2026-04-30 03:21 28.13275 -17.25403 37738 ft 462 kts 19°
2026-04-30 03:21 28.16135 -17.23714 37886 ft 463 kts 20°
2026-04-30 03:22 28.18996 -17.22018 37990 ft 464 kts 20°
2026-04-30 03:22 28.21866 -17.20312 38042 ft 465 kts 20°
2026-04-30 03:22 28.27578 -17.16905 38042 ft 464 kts 20°
2026-04-30 03:23 28.33276 -17.13498 38051 ft 461 kts 20°
2026-04-30 03:23 28.38955 -17.10102 38052 ft 459 kts 20°
2026-04-30 03:24 28.44615 -17.06716 38078 ft 458 kts 20°
2026-04-30 03:24 28.50247 -17.03341 38050 ft 461 kts 21°
2026-04-30 03:25 28.55944 -16.99928 38055 ft 468 kts 21°
2026-04-30 03:25 28.61751 -16.96450 38053 ft 473 kts 21°
2026-04-30 03:26 28.67609 -16.92927 38052 ft 476 kts 21°
2026-04-30 03:26 28.73435 -16.89412 38037 ft 474 kts 21°
2026-04-30 03:27 28.79225 -16.85912 38051 ft 466 kts 21°
2026-04-30 03:27 28.84909 -16.82482 38038 ft 464 kts 21°
2026-04-30 03:28 28.90620 -16.79033 38048 ft 464 kts 21°
2026-04-30 03:28 28.96326 -16.75583 38050 ft 464 kts 21°
2026-04-30 03:29 29.02050 -16.72115 38048 ft 465 kts 21°
2026-04-30 03:29 29.07756 -16.68655 38056 ft 469 kts 22°
2026-04-30 03:30 29.13569 -16.65123 38052 ft 475 kts 22°
2026-04-30 03:30 29.19444 -16.61555 38054 ft 480 kts 22°
2026-04-30 03:31 29.25332 -16.57967 38053 ft 483 kts 22°
2026-04-30 03:31 29.31272 -16.54340 38034 ft 480 kts 22°
2026-04-30 03:32 29.37111 -16.50768 38057 ft 473 kts 22°
2026-04-30 03:32 29.42919 -16.47219 38045 ft 471 kts 22°
2026-04-30 03:33 29.48664 -16.43703 38044 ft 470 kts 22°
2026-04-30 03:33 29.54450 -16.40156 38044 ft 470 kts 22°
2026-04-30 03:34 29.60249 -16.36597 38048 ft 471 kts 22°
2026-04-30 03:34 29.66026 -16.33049 38042 ft 475 kts 23°
2026-04-30 03:35 29.71904 -16.29431 38038 ft 482 kts 23°
2026-04-30 03:35 29.77855 -16.25762 38036 ft 487 kts 23°
2026-04-30 03:36 29.83814 -16.22082 38050 ft 490 kts 23°
2026-04-30 03:36 29.89826 -16.18361 38036 ft 487 kts 23°
2026-04-30 03:37 29.95751 -16.14687 38047 ft 479 kts 23°
2026-04-30 03:37 30.01584 -16.11071 38044 ft 478 kts 23°
2026-04-30 03:38 30.07447 -16.07434 38046 ft 477 kts 23°
2026-04-30 03:38 30.13304 -16.03793 38044 ft 478 kts 23°
2026-04-30 03:39 30.19168 -16.00143 38042 ft 479 kts 23°
2026-04-30 03:39 30.24060 -15.97093 38042 ft 481 kts 24°
2026-04-30 03:40 30.29953 -15.93420 38056 ft 485 kts 24°
2026-04-30 03:40 30.35929 -15.89683 38056 ft 489 kts 24°
2026-04-30 03:41 30.41952 -15.85909 38052 ft 492 kts 24°
2026-04-30 03:41 30.47946 -15.82157 38045 ft 494 kts 24°
2026-04-30 03:42 30.54002 -15.78364 38043 ft 494 kts 24°
2026-04-30 03:42 30.60034 -15.74580 38047 ft 493 kts 24°
2026-04-30 03:43 30.66066 -15.70788 38041 ft 492 kts 24°
2026-04-30 03:43 30.72087 -15.66998 38039 ft 490 kts 24°
2026-04-30 03:44 30.78099 -15.63209 38039 ft 489 kts 25°
2026-04-30 03:44 30.84093 -15.59426 38039 ft 490 kts 25°
2026-04-30 03:45 30.90066 -15.55651 38049 ft 492 kts 25°
2026-04-30 03:45 30.96104 -15.51830 38050 ft 494 kts 25°
2026-04-30 03:46 31.02118 -15.48017 38047 ft 496 kts 25°
2026-04-30 03:46 31.08200 -15.44155 38042 ft 497 kts 25°
2026-04-30 03:47 31.14292 -15.40281 38059 ft 498 kts 25°
2026-04-30 03:47 31.20344 -15.36427 38050 ft 498 kts 25°
2026-04-30 03:48 31.26446 -15.32535 38051 ft 498 kts 25°
2026-04-30 03:48 31.32425 -15.28496 38055 ft 499 kts 30°
2026-04-30 03:49 31.38225 -15.24000 38046 ft 499 kts 31°
2026-04-30 03:49 31.44002 -15.19461 38065 ft 499 kts 31°
2026-04-30 03:50 31.49783 -15.14940 38043 ft 499 kts 31°
2026-04-30 03:50 31.55538 -15.10457 38044 ft 499 kts 31°
2026-04-30 03:51 31.61334 -15.05943 38045 ft 499 kts 31°
2026-04-30 03:51 31.67096 -15.01448 38042 ft 499 kts 31°
2026-04-30 03:52 31.72890 -14.96919 38060 ft 499 kts 31°
2026-04-30 03:52 31.78640 -14.92418 38045 ft 500 kts 31°
2026-04-30 03:53 31.84448 -14.87866 38041 ft 501 kts 31°
2026-04-30 03:53 31.90229 -14.83325 38048 ft 502 kts 31°
2026-04-30 03:54 31.96056 -14.78741 38047 ft 502 kts 31°
2026-04-30 03:54 32.01837 -14.74187 38044 ft 503 kts 31°
2026-04-30 03:55 32.07695 -14.69566 38045 ft 503 kts 32°
2026-04-30 03:55 32.13488 -14.64988 38041 ft 504 kts 32°
2026-04-30 03:56 32.19328 -14.60365 38044 ft 504 kts 32°
2026-04-30 03:56 32.25116 -14.55778 38031 ft 504 kts 32°
2026-04-30 03:57 32.30962 -14.51140 38040 ft 504 kts 32°
2026-04-30 03:57 32.36776 -14.46514 38047 ft 505 kts 32°
2026-04-30 03:58 32.42571 -14.41898 38044 ft 505 kts 32°
2026-04-30 03:58 32.48418 -14.37234 38045 ft 505 kts 32°
2026-04-30 03:59 32.54249 -14.32575 38044 ft 505 kts 32°
2026-04-30 03:59 32.60087 -14.27904 38043 ft 506 kts 32°
2026-04-30 04:00 32.65890 -14.23252 38045 ft 506 kts 32°
2026-04-30 04:00 32.71730 -14.18565 38043 ft 505 kts 32°
2026-04-30 04:01 32.77560 -14.13877 38047 ft 505 kts 32°
2026-04-30 04:01 32.83361 -14.09205 38043 ft 505 kts 32°
2026-04-30 04:02 32.89175 -14.04515 38058 ft 505 kts 33°
2026-04-30 04:02 32.95009 -13.99801 38040 ft 505 kts 33°
2026-04-30 04:03 33.00784 -13.95128 38040 ft 505 kts 33°
2026-04-30 04:03 33.06613 -13.90403 38044 ft 505 kts 33°
2026-04-30 04:04 33.12394 -13.85709 38043 ft 505 kts 33°
2026-04-30 04:04 33.18209 -13.80981 38050 ft 504 kts 33°
2026-04-30 04:05 33.23987 -13.76274 38044 ft 505 kts 33°
2026-04-30 04:05 33.29796 -13.71534 38043 ft 505 kts 33°
2026-04-30 04:06 33.35619 -13.66775 38044 ft 505 kts 33°
2026-04-30 04:06 33.41392 -13.62050 38044 ft 506 kts 33°
2026-04-30 04:07 33.47211 -13.57279 38059 ft 506 kts 33°
2026-04-30 04:08 33.55943 -13.50105 38041 ft 507 kts 34°
2026-04-30 04:08 33.61722 -13.45346 38047 ft 507 kts 33°
2026-04-30 04:09 33.67546 -13.40543 38039 ft 507 kts 34°
2026-04-30 04:09 33.73363 -13.35738 38040 ft 507 kts 34°
2026-04-30 04:10 33.79141 -13.30957 38038 ft 507 kts 34°
2026-04-30 04:10 33.84954 -13.26139 38042 ft 507 kts 34°
2026-04-30 04:11 33.90785 -13.21298 38043 ft 508 kts 34°
2026-04-30 04:11 33.96606 -13.16457 38044 ft 508 kts 34°
2026-04-30 04:12 34.02402 -13.11628 38032 ft 508 kts 34°
2026-04-30 04:12 34.08216 -13.06777 38040 ft 508 kts 34°
2026-04-30 04:13 34.14041 -13.01908 38049 ft 508 kts 34°
2026-04-30 04:13 34.19851 -12.97043 38042 ft 508 kts 34°
2026-04-30 04:14 34.25630 -12.92196 38040 ft 508 kts 34°
2026-04-30 04:14 34.31442 -12.87313 38062 ft 508 kts 34°
2026-04-30 04:15 34.37252 -12.82423 38042 ft 508 kts 34°
2026-04-30 04:15 34.43060 -12.77526 38044 ft 508 kts 34°
2026-04-30 04:16 34.48863 -12.72626 38043 ft 508 kts 34°
2026-04-30 04:16 34.54630 -12.67747 38037 ft 508 kts 34°
2026-04-30 04:17 34.60424 -12.62837 38044 ft 508 kts 35°
2026-04-30 04:17 34.66189 -12.57943 38040 ft 508 kts 35°
2026-04-30 04:18 34.71984 -12.53014 38041 ft 508 kts 35°
2026-04-30 04:18 34.77785 -12.48072 38041 ft 508 kts 35°
2026-04-30 04:19 34.83547 -12.43155 38041 ft 508 kts 35°
2026-04-30 04:19 34.89340 -12.38203 38037 ft 508 kts 35°
2026-04-30 04:20 34.95104 -12.33267 38049 ft 508 kts 35°
2026-04-30 04:20 35.00892 -12.28302 38044 ft 509 kts 35°
2026-04-30 04:21 35.06700 -12.23310 38042 ft 509 kts 35°
2026-04-30 04:21 35.12463 -12.18349 38041 ft 509 kts 35°
2026-04-30 04:22 35.18257 -12.13352 38044 ft 509 kts 35°
2026-04-30 04:22 35.24057 -12.08341 38043 ft 509 kts 35°
2026-04-30 04:23 35.29825 -12.03348 38031 ft 509 kts 36°
2026-04-30 04:23 35.35617 -11.98326 38045 ft 509 kts 36°
2026-04-30 04:24 35.41354 -11.93343 38041 ft 509 kts 36°
2026-04-30 04:24 35.47144 -11.88304 38040 ft 508 kts 36°
2026-04-30 04:25 35.51940 -11.84124 38038 ft 508 kts 36°
2026-04-30 04:25 35.58655 -11.78260 38040 ft 508 kts 36°
2026-04-30 04:26 35.63463 -11.74054 38041 ft 508 kts 36°
2026-04-30 04:26 35.69229 -11.69002 38051 ft 508 kts 36°
2026-04-30 04:27 35.74986 -11.63948 38038 ft 507 kts 36°
2026-04-30 04:27 35.80709 -11.58915 38041 ft 507 kts 36°
2026-04-30 04:28 35.86449 -11.53857 38040 ft 506 kts 36°
2026-04-30 04:28 35.92163 -11.48814 38040 ft 506 kts 36°
2026-04-30 04:29 35.98141 -11.44310 38045 ft 505 kts 26°
2026-04-30 04:29 36.04682 -11.41100 38053 ft 504 kts 19°
2026-04-30 04:30 36.11315 -11.38229 38039 ft 505 kts 18°
2026-04-30 04:30 36.17937 -11.35335 38041 ft 505 kts 19°
2026-04-30 04:31 36.24521 -11.32409 38042 ft 505 kts 19°
2026-04-30 04:31 36.31140 -11.29442 38032 ft 505 kts 19°
2026-04-30 04:32 36.37760 -11.26468 38044 ft 505 kts 19°
2026-04-30 04:32 36.44343 -11.23508 38032 ft 506 kts 19°
2026-04-30 04:33 36.50978 -11.20521 38032 ft 506 kts 19°
2026-04-30 04:33 36.57602 -11.17533 38033 ft 506 kts 19°
2026-04-30 04:34 36.64244 -11.14532 38033 ft 507 kts 19°
2026-04-30 04:34 36.70843 -11.11544 38033 ft 507 kts 19°
2026-04-30 04:35 36.77475 -11.08537 38032 ft 507 kts 19°
2026-04-30 04:35 36.84113 -11.05520 38033 ft 507 kts 19°
2026-04-30 04:36 36.90720 -11.02513 38032 ft 508 kts 19°
2026-04-30 04:36 36.97364 -10.99482 38033 ft 508 kts 19°
2026-04-30 04:37 37.04017 -10.96443 38032 ft 508 kts 19°
2026-04-30 04:37 37.10618 -10.93421 38023 ft 508 kts 19°
2026-04-30 04:38 37.17277 -10.90367 38031 ft 508 kts 19°
2026-04-30 04:38 37.23873 -10.87336 38034 ft 508 kts 19°
2026-04-30 04:39 37.30519 -10.84277 38032 ft 508 kts 19°
2026-04-30 04:39 37.37166 -10.81211 38030 ft 508 kts 19°
2026-04-30 04:40 37.43814 -10.78139 38036 ft 508 kts 19°
2026-04-30 04:40 37.50433 -10.75074 38034 ft 509 kts 19°
2026-04-30 04:41 37.57085 -10.71989 38033 ft 509 kts 19°
2026-04-30 04:41 37.63733 -10.68900 38030 ft 509 kts 19°
2026-04-30 04:42 37.70342 -10.65823 38030 ft 509 kts 19°
2026-04-30 04:42 37.76995 -10.62719 38030 ft 509 kts 19°
2026-04-30 04:43 37.83650 -10.59608 38025 ft 509 kts 19°
2026-04-30 04:43 37.90304 -10.56492 38018 ft 509 kts 19°
2026-04-30 04:44 37.96902 -10.53396 38031 ft 509 kts 19°
2026-04-30 04:44 38.03552 -10.50270 38024 ft 509 kts 19°
2026-04-30 04:45 38.10204 -10.47137 38027 ft 509 kts 19°
2026-04-30 04:45 38.16824 -10.44013 38027 ft 508 kts 19°
2026-04-30 04:46 38.23464 -10.40873 38030 ft 509 kts 19°
2026-04-30 04:46 38.30076 -10.37740 38024 ft 509 kts 19°
2026-04-30 04:47 38.36716 -10.34588 38025 ft 509 kts 19°
2026-04-30 04:47 38.43321 -10.31446 38024 ft 509 kts 19°
2026-04-30 04:48 38.49968 -10.28279 38021 ft 509 kts 19°
2026-04-30 04:48 38.56571 -10.25126 38025 ft 509 kts 19°
2026-04-30 04:49 38.63225 -10.21942 38027 ft 509 kts 19°
2026-04-30 04:49 38.69865 -10.18759 38023 ft 509 kts 18°
2026-04-30 04:50 38.76495 -10.15574 38021 ft 509 kts 18°
2026-04-30 04:50 38.83091 -10.12399 38023 ft 509 kts 18°
2026-04-30 04:51 38.89727 -10.09199 38018 ft 509 kts 18°
2026-04-30 04:51 38.96361 -10.05993 38024 ft 509 kts 18°
2026-04-30 04:52 39.02959 -10.02798 38017 ft 509 kts 18°
2026-04-30 04:52 39.09589 -9.99581 38020 ft 508 kts 18°
2026-04-30 04:53 39.16216 -9.96360 38029 ft 508 kts 18°
2026-04-30 04:53 39.22844 -9.93131 38022 ft 508 kts 18°
2026-04-30 04:54 39.29422 -9.89920 38019 ft 508 kts 18°
2026-04-30 04:54 39.36039 -9.86684 38016 ft 508 kts 18°
2026-04-30 04:55 39.42653 -9.83442 38023 ft 508 kts 18°
2026-04-30 04:55 39.49233 -9.80210 38016 ft 507 kts 18°
2026-04-30 04:56 39.55842 -9.76958 38014 ft 507 kts 18°
2026-04-30 04:56 39.62404 -9.73723 38029 ft 506 kts 18°
2026-04-30 04:57 39.69001 -9.70463 38015 ft 506 kts 18°
2026-04-30 04:57 39.75552 -9.67220 38015 ft 506 kts 18°
2026-04-30 04:58 39.82140 -9.63951 38014 ft 505 kts 18°
2026-04-30 04:58 39.88723 -9.60678 38026 ft 505 kts 18°
2026-04-30 04:59 39.95259 -9.57423 38009 ft 505 kts 18°
2026-04-30 04:59 40.01830 -9.54143 38004 ft 504 kts 18°
2026-04-30 05:00 40.08354 -9.50879 38010 ft 504 kts 18°
2026-04-30 05:00 40.14925 -9.47585 37999 ft 504 kts 18°
2026-04-30 05:01 40.21445 -9.44310 38017 ft 503 kts 17°
2026-04-30 05:01 40.27991 -9.41015 38012 ft 503 kts 17°
2026-04-30 05:02 40.34498 -9.37733 38017 ft 502 kts 17°
2026-04-30 05:02 40.41031 -9.34431 38009 ft 501 kts 17°
2026-04-30 05:03 40.47505 -9.31152 38012 ft 501 kts 17°
2026-04-30 05:03 40.54018 -9.27847 38030 ft 501 kts 17°
2026-04-30 05:04 40.60531 -9.24534 38003 ft 501 kts 17°
2026-04-30 05:04 40.67004 -9.21235 38011 ft 501 kts 17°
2026-04-30 05:05 40.73519 -9.17908 38006 ft 501 kts 17°
2026-04-30 05:05 40.80028 -9.14576 38021 ft 501 kts 17°
2026-04-30 05:06 40.89747 -9.09589 38006 ft 501 kts 17°
2026-04-30 05:06 40.96259 -9.06238 38014 ft 500 kts 17°
2026-04-30 05:07 41.02715 -9.02909 38022 ft 500 kts 17°
2026-04-30 05:07 41.09208 -8.99555 38012 ft 500 kts 17°
2026-04-30 05:08 41.15660 -8.96214 38016 ft 499 kts 17°
2026-04-30 05:08 41.22131 -8.92856 38045 ft 499 kts 17°
2026-04-30 05:09 41.28607 -8.89489 38019 ft 499 kts 17°
2026-04-30 05:09 41.35032 -8.86140 38019 ft 498 kts 17°
2026-04-30 05:10 41.41493 -8.82767 38018 ft 498 kts 17°
2026-04-30 05:10 41.47963 -8.79381 38025 ft 498 kts 17°
2026-04-30 05:11 41.54399 -8.76005 38022 ft 498 kts 17°
2026-04-30 05:11 41.60858 -8.72610 38018 ft 498 kts 17°
2026-04-30 05:12 41.67272 -8.69232 38045 ft 497 kts 17°
2026-04-30 05:12 41.72631 -8.66403 38015 ft 498 kts 17°
2026-04-30 05:13 41.79076 -8.62994 38017 ft 497 kts 17°
2026-04-30 05:13 41.85442 -8.59290 38022 ft 500 kts 24°
2026-04-30 05:14 41.91327 -8.54211 38002 ft 504 kts 32°
2026-04-30 05:14 41.97026 -8.48796 38006 ft 504 kts 32°
2026-04-30 05:15 42.02761 -8.43360 38027 ft 503 kts 32°
2026-04-30 05:15 42.08517 -8.37952 38016 ft 503 kts 31°
2026-04-30 05:16 42.14232 -8.32594 38013 ft 503 kts 31°
2026-04-30 05:16 42.19983 -8.27190 38016 ft 502 kts 32°
2026-04-30 05:17 42.25735 -8.21774 38000 ft 503 kts 32°
2026-04-30 05:17 42.31430 -8.16397 38018 ft 502 kts 32°
2026-04-30 05:18 42.37168 -8.10965 38020 ft 503 kts 32°
2026-04-30 05:18 42.42905 -8.05522 38008 ft 503 kts 32°
2026-04-30 05:19 42.48607 -8.00101 38012 ft 504 kts 32°
2026-04-30 05:19 42.54347 -7.94630 38016 ft 504 kts 32°
2026-04-30 05:20 42.60106 -7.89130 38010 ft 504 kts 32°
2026-04-30 05:20 42.65813 -7.83664 38007 ft 504 kts 32°
2026-04-30 05:21 42.71552 -7.78156 38011 ft 504 kts 32°
2026-04-30 05:21 42.77280 -7.72647 38032 ft 503 kts 32°
2026-04-30 05:22 42.82966 -7.67166 38021 ft 503 kts 32°
2026-04-30 05:22 42.88677 -7.61647 38014 ft 503 kts 32°
2026-04-30 05:23 42.94379 -7.56124 38004 ft 502 kts 32°
2026-04-30 05:23 43.00075 -7.50594 38024 ft 501 kts 33°
2026-04-30 05:24 43.05721 -7.45101 38011 ft 500 kts 33°
2026-04-30 05:24 43.11394 -7.39568 38004 ft 499 kts 33°
2026-04-30 05:25 43.17047 -7.34041 38011 ft 498 kts 33°
2026-04-30 05:25 43.22668 -7.28535 38017 ft 498 kts 33°
2026-04-30 05:26 43.28318 -7.22986 38010 ft 498 kts 33°
2026-04-30 05:26 43.33905 -7.17484 38012 ft 497 kts 33°
2026-04-30 05:27 43.39529 -7.11936 38000 ft 497 kts 33°
2026-04-30 05:27 43.45147 -7.06381 38007 ft 496 kts 34°
2026-04-30 05:28 43.50755 -7.00822 37994 ft 496 kts 34°
2026-04-30 05:28 43.56312 -6.95300 37995 ft 495 kts 34°
2026-04-30 05:29 43.61904 -6.89731 37995 ft 494 kts 34°
2026-04-30 05:29 43.67483 -6.84162 37998 ft 493 kts 34°
2026-04-30 05:30 43.73002 -6.78639 37992 ft 493 kts 34°
2026-04-30 05:30 43.78560 -6.73065 37994 ft 492 kts 34°
2026-04-30 05:31 43.84080 -6.67516 38005 ft 492 kts 34°
2026-04-30 05:31 43.89625 -6.61928 37994 ft 492 kts 34°
2026-04-30 05:32 43.95132 -6.56366 37994 ft 491 kts 34°
2026-04-30 05:32 44.00662 -6.50768 37992 ft 491 kts 34°
2026-04-30 05:33 44.06195 -6.45153 37997 ft 491 kts 35°
2026-04-30 05:33 44.11672 -6.39582 37994 ft 491 kts 35°
2026-04-30 05:34 44.17190 -6.33956 37994 ft 490 kts 35°
2026-04-30 05:34 44.22670 -6.28355 37994 ft 490 kts 35°
2026-04-30 05:35 44.28169 -6.22722 37996 ft 489 kts 35°
2026-04-30 05:35 44.33664 -6.17080 37990 ft 489 kts 35°
2026-04-30 05:36 44.39127 -6.11456 37994 ft 489 kts 35°
2026-04-30 05:36 44.44597 -6.05813 37992 ft 488 kts 35°
2026-04-30 05:37 44.50044 -6.00180 37991 ft 488 kts 35°
2026-04-30 05:37 44.55511 -5.94511 37988 ft 488 kts 36°
2026-04-30 05:38 44.60978 -5.88829 37989 ft 488 kts 36°
2026-04-30 05:38 44.66360 -5.83101 37997 ft 488 kts 39°
2026-04-30 05:39 44.71315 -5.76497 37998 ft 489 kts 44°
2026-04-30 05:39 44.76140 -5.69774 37985 ft 489 kts 44°
2026-04-30 05:40 44.80997 -5.63033 37993 ft 489 kts 44°
2026-04-30 05:40 44.85831 -5.56365 37995 ft 489 kts 44°
2026-04-30 05:41 44.90694 -5.49655 37997 ft 489 kts 44°
2026-04-30 05:41 44.95565 -5.42918 37997 ft 488 kts 44°
2026-04-30 05:42 45.00392 -5.36224 37997 ft 488 kts 44°
2026-04-30 05:42 45.05238 -5.29482 37993 ft 488 kts 44°
2026-04-30 05:43 45.10082 -5.22733 37996 ft 488 kts 44°
2026-04-30 05:43 45.14931 -5.15957 37998 ft 488 kts 45°
2026-04-30 05:44 45.19734 -5.09225 37997 ft 488 kts 45°
2026-04-30 05:44 45.24568 -5.02432 37992 ft 488 kts 45°
2026-04-30 05:45 45.29398 -4.95631 37996 ft 488 kts 45°
2026-04-30 05:45 45.34222 -4.88827 37991 ft 489 kts 45°
2026-04-30 05:46 45.39046 -4.81993 37992 ft 489 kts 45°
2026-04-30 05:46 45.43837 -4.75191 37992 ft 489 kts 45°
2026-04-30 05:47 45.48654 -4.68338 37995 ft 489 kts 46°
2026-04-30 05:47 45.53476 -4.61464 37990 ft 489 kts 46°
2026-04-30 05:48 45.58286 -4.54584 37989 ft 489 kts 46°
2026-04-30 05:48 45.63068 -4.47727 37986 ft 489 kts 46°
2026-04-30 05:49 45.67859 -4.40839 37986 ft 488 kts 46°
2026-04-30 05:49 45.72659 -4.33921 37984 ft 488 kts 46°
2026-04-30 05:50 45.77418 -4.27046 37983 ft 488 kts 46°
2026-04-30 05:50 45.82199 -4.20120 37978 ft 488 kts 46°
2026-04-30 05:51 45.86968 -4.13194 37978 ft 488 kts 46°
2026-04-30 05:51 45.91710 -4.06289 37985 ft 488 kts 47°
2026-04-30 05:52 45.96472 -3.99337 37977 ft 488 kts 47°
2026-04-30 05:52 46.01241 -3.92357 37970 ft 488 kts 47°
2026-04-30 05:53 46.06000 -3.85373 37979 ft 488 kts 47°
2026-04-30 05:53 46.10727 -3.78417 37981 ft 488 kts 47°
2026-04-30 05:54 46.15494 -3.71384 37978 ft 489 kts 47°
2026-04-30 05:54 46.20251 -3.64349 37978 ft 489 kts 47°
2026-04-30 05:55 46.24974 -3.57345 37968 ft 489 kts 47°
2026-04-30 05:55 46.29725 -3.50279 37983 ft 490 kts 47°
2026-04-30 05:56 46.34475 -3.43197 37979 ft 490 kts 47°
2026-04-30 05:56 46.38427 -3.37291 37976 ft 490 kts 47°
2026-04-30 05:57 46.43172 -3.30181 37978 ft 490 kts 47°
2026-04-30 05:57 46.47887 -3.23097 37978 ft 490 kts 47°
2026-04-30 05:58 46.52628 -3.15957 37982 ft 490 kts 48°
2026-04-30 05:58 46.57147 -3.08575 37982 ft 487 kts 55°
2026-04-30 05:59 46.60710 -3.00304 37994 ft 484 kts 62°
2026-04-30 05:59 46.64050 -2.91784 37992 ft 484 kts 62°
2026-04-30 06:00 46.67410 -2.83283 37985 ft 484 kts 62°
2026-04-30 06:00 46.70770 -2.74846 37995 ft 483 kts 62°
2026-04-30 06:01 46.74152 -2.66341 37997 ft 483 kts 62°
2026-04-30 06:01 46.77497 -2.57897 37997 ft 483 kts 62°
2026-04-30 06:02 46.80857 -2.49386 37997 ft 483 kts 62°
2026-04-30 06:02 46.84218 -2.40862 37988 ft 483 kts 61°
2026-04-30 06:03 46.88189 -2.32909 37993 ft 486 kts 49°
2026-04-30 06:03 46.92904 -2.25882 38005 ft 486 kts 46°
2026-04-30 06:04 46.97697 -2.18895 38005 ft 486 kts 47°
2026-04-30 06:05 47.04830 -2.08345 38001 ft 486 kts 47°
2026-04-30 06:05 47.09576 -2.01249 37997 ft 485 kts 47°
2026-04-30 06:06 47.14264 -1.94216 37996 ft 484 kts 47°
2026-04-30 06:06 47.18981 -1.87124 37995 ft 484 kts 47°
2026-04-30 06:07 47.23681 -1.80040 37998 ft 483 kts 47°
2026-04-30 06:07 47.28342 -1.72995 37996 ft 482 kts 47°
2026-04-30 06:08 47.33020 -1.65908 37995 ft 481 kts 47°
2026-04-30 06:08 47.37693 -1.58808 37999 ft 481 kts 47°
2026-04-30 06:09 47.42316 -1.51764 37999 ft 481 kts 48°
2026-04-30 06:09 47.46969 -1.44656 38007 ft 481 kts 48°
2026-04-30 06:10 47.51624 -1.37525 38009 ft 481 kts 48°
2026-04-30 06:10 47.56245 -1.30427 38017 ft 481 kts 48°
2026-04-30 06:11 47.60892 -1.23272 38024 ft 480 kts 48°
2026-04-30 06:11 47.65523 -1.16118 38032 ft 479 kts 48°
2026-04-30 06:12 47.70110 -1.09018 38031 ft 478 kts 48°
2026-04-30 06:12 47.74707 -1.01880 38039 ft 477 kts 48°
2026-04-30 06:13 47.79269 -0.94775 38038 ft 477 kts 49°
2026-04-30 06:13 47.83856 -0.87612 38048 ft 476 kts 49°
2026-04-30 06:14 47.88406 -0.80489 38044 ft 475 kts 49°
2026-04-30 06:14 47.92970 -0.73325 38049 ft 475 kts 49°
2026-04-30 06:15 47.97491 -0.66208 38049 ft 474 kts 49°
2026-04-30 06:15 48.02037 -0.59032 38042 ft 474 kts 49°
2026-04-30 06:16 48.06570 -0.51857 38053 ft 475 kts 49°
2026-04-30 06:16 48.11093 -0.44677 38056 ft 475 kts 49°
2026-04-30 06:17 48.15633 -0.37452 38065 ft 476 kts 49°
2026-04-30 06:17 48.20154 -0.30237 38073 ft 477 kts 49°
2026-04-30 06:18 48.24705 -0.22953 38084 ft 477 kts 49°
2026-04-30 06:18 48.29217 -0.15712 38078 ft 477 kts 49°
2026-04-30 06:19 48.33761 -0.08400 38085 ft 478 kts 49°
2026-04-30 06:19 48.38249 -0.01079 38081 ft 477 kts 51°
2026-04-30 06:20 48.42605 0.06459 38088 ft 476 kts 51°
2026-04-30 06:20 48.46913 0.14018 38090 ft 475 kts 51°
2026-04-30 06:21 48.51236 0.21578 38101 ft 474 kts 51°
2026-04-30 06:21 48.55525 0.29065 38101 ft 473 kts 51°
2026-04-30 06:22 48.59831 0.36592 38110 ft 473 kts 51°
2026-04-30 06:22 48.64104 0.44085 38102 ft 472 kts 51°
2026-04-30 06:23 48.68390 0.51625 38113 ft 473 kts 51°
2026-04-30 06:23 48.72687 0.59206 38123 ft 473 kts 51°
2026-04-30 06:24 48.76973 0.66784 38130 ft 474 kts 51°
2026-04-30 06:24 48.81269 0.74406 38135 ft 475 kts 51°
2026-04-30 06:25 48.85533 0.81996 38135 ft 475 kts 51°
2026-04-30 06:25 48.89825 0.89657 38142 ft 475 kts 51°
2026-04-30 06:26 48.94110 0.97324 38158 ft 475 kts 51°
2026-04-30 06:26 48.98383 1.04995 38153 ft 474 kts 51°
2026-04-30 06:27 49.02613 1.12604 38159 ft 473 kts 51°
2026-04-30 06:27 49.06867 1.20287 38154 ft 473 kts 51°
2026-04-30 06:28 49.11084 1.27923 38161 ft 471 kts 51°
2026-04-30 06:28 49.15310 1.35597 38154 ft 470 kts 52°
2026-04-30 06:29 49.19477 1.43190 38162 ft 468 kts 52°
2026-04-30 06:29 49.23660 1.50829 38176 ft 467 kts 51°
2026-04-30 06:30 49.28042 1.58177 38181 ft 467 kts 44°
2026-04-30 06:30 49.32845 1.64839 38182 ft 467 kts 44°
2026-04-30 06:31 49.37702 1.71522 38187 ft 468 kts 44°
2026-04-30 06:31 49.42499 1.78199 38193 ft 468 kts 44°
2026-04-30 06:32 49.47317 1.84964 38197 ft 469 kts 44°
2026-04-30 06:32 49.52114 1.91724 38204 ft 469 kts 44°
2026-04-30 06:33 49.56918 1.98513 38211 ft 468 kts 44°
2026-04-30 06:33 49.61721 2.05322 38211 ft 467 kts 44°
2026-04-30 06:34 49.66475 2.12079 38215 ft 466 kts 44°
2026-04-30 06:34 49.71227 2.18851 38215 ft 466 kts 45°
2026-04-30 06:35 49.76003 2.25677 38215 ft 465 kts 44°
2026-04-30 06:35 49.80722 2.32439 38225 ft 464 kts 44°
2026-04-30 06:36 49.85460 2.39247 38219 ft 463 kts 44°
2026-04-30 06:36 49.90152 2.46009 38226 ft 462 kts 44°
2026-04-30 06:37 49.94864 2.52819 38237 ft 461 kts 44°
2026-04-30 06:37 49.99550 2.59610 38239 ft 461 kts 44°
2026-04-30 06:38 50.04249 2.66438 38243 ft 461 kts 44°
2026-04-30 06:38 50.08909 2.73230 38237 ft 462 kts 44°
2026-04-30 06:39 50.13599 2.80083 38242 ft 462 kts 45°
2026-04-30 06:39 50.18287 2.86957 38237 ft 463 kts 45°
2026-04-30 06:40 50.22986 2.93859 38260 ft 464 kts 45°
2026-04-30 06:40 50.27672 3.00766 38266 ft 466 kts 45°
2026-04-30 06:41 50.32391 3.07744 38278 ft 467 kts 45°
2026-04-30 06:41 50.36323 3.13571 38281 ft 468 kts 45°
2026-04-30 06:42 50.41827 3.21753 38288 ft 468 kts 45°
2026-04-30 06:42 50.45758 3.27611 38291 ft 468 kts 45°
2026-04-30 06:43 50.50654 3.34333 38287 ft 468 kts 37°
2026-04-30 06:43 50.53359 3.37133 38186 ft 464 kts 33°
2026-04-30 06:43 50.56194 3.39561 37820 ft 464 kts 27°
2026-04-30 06:43 50.59151 3.41627 37364 ft 466 kts 25°
2026-04-30 06:44 50.62136 3.43629 36903 ft 466 kts 25°
2026-04-30 06:44 50.65129 3.45627 36455 ft 466 kts 26°
2026-04-30 06:44 50.68080 3.47618 35959 ft 467 kts 26°
2026-04-30 06:44 50.71068 3.49658 35448 ft 467 kts 26°
2026-04-30 06:45 50.74067 3.51725 34788 ft 467 kts 27°
2026-04-30 06:45 50.77017 3.53768 33841 ft 469 kts 27°
2026-04-30 06:45 50.80012 3.55847 32869 ft 469 kts 27°
2026-04-30 06:45 50.82978 3.57905 32215 ft 462 kts 27°
2026-04-30 06:46 50.85915 3.59944 31560 ft 457 kts 27°
2026-04-30 06:46 50.88869 3.61805 30901 ft 455 kts 21°
2026-04-30 06:46 50.91928 3.63103 30280 ft 454 kts 15°
2026-04-30 06:46 50.95004 3.63947 29570 ft 451 kts 10°
2026-04-30 06:47 50.98134 3.64288 28901 ft 448 kts
2026-04-30 06:47 51.01238 3.64451 28254 ft 443 kts
2026-04-30 06:47 51.04308 3.64599 27617 ft 438 kts
2026-04-30 06:47 51.07338 3.64760 26983 ft 434 kts
2026-04-30 06:48 51.10342 3.64937 26363 ft 430 kts
2026-04-30 06:48 51.13321 3.65126 25756 ft 427 kts
2026-04-30 06:48 51.16245 3.65317 25159 ft 424 kts
2026-04-30 06:48 51.19187 3.65510 24564 ft 421 kts
2026-04-30 06:49 51.22107 3.65702 23951 ft 419 kts
2026-04-30 06:49 51.25025 3.65852 23261 ft 417 kts
2026-04-30 06:49 51.27925 3.65817 22641 ft 414 kts
2026-04-30 06:49 51.30757 3.65697 22059 ft 411 kts
2026-04-30 06:50 51.33614 3.65559 21492 ft 407 kts
2026-04-30 06:50 51.36439 3.65433 20936 ft 404 kts
2026-04-30 06:50 51.39248 3.65322 20399 ft 400 kts
2026-04-30 06:50 51.42029 3.65224 19864 ft 397 kts
2026-04-30 06:51 51.44749 3.65135 19342 ft 395 kts
2026-04-30 06:51 51.47490 3.65049 18812 ft 393 kts
2026-04-30 06:51 51.50223 3.64963 18239 ft 391 kts
2026-04-30 06:51 51.52943 3.64879 17666 ft 389 kts
2026-04-30 06:52 51.55606 3.64796 17145 ft 386 kts
2026-04-30 06:52 51.58293 3.64711 16628 ft 382 kts
2026-04-30 06:52 51.60937 3.64628 16143 ft 379 kts
2026-04-30 06:52 51.63578 3.64545 15644 ft 377 kts
2026-04-30 06:53 51.66195 3.64462 15163 ft 374 kts
2026-04-30 06:53 51.68749 3.64423 14676 ft 364 kts
2026-04-30 06:53 51.71141 3.65356 14187 ft 350 kts 30°
2026-04-30 06:53 51.73112 3.67565 13671 ft 341 kts 46°
2026-04-30 06:54 51.74618 3.70457 13159 ft 334 kts 59°
2026-04-30 06:54 51.75870 3.73599 12670 ft 330 kts 61°
2026-04-30 06:54 51.77080 3.76746 12190 ft 328 kts 61°
2026-04-30 06:54 51.78254 3.79810 11724 ft 326 kts 61°
2026-04-30 06:55 51.79461 3.82940 11243 ft 324 kts 61°
2026-04-30 06:55 51.80646 3.85992 11030 ft 314 kts 61°
2026-04-30 06:55 51.81778 3.88894 10905 ft 302 kts 61°
2026-04-30 06:55 51.82882 3.91720 10755 ft 291 kts 61°
2026-04-30 06:56 51.83945 3.94439 10664 ft 280 kts 61°
2026-04-30 06:56 51.84969 3.97058 10542 ft 270 kts 61°
2026-04-30 06:56 51.85952 3.99575 10425 ft 259 kts 61°
2026-04-30 06:56 51.86900 4.02007 10247 ft 254 kts 62°
2026-04-30 06:57 51.87839 4.04417 9934 ft 251 kts 62°
2026-04-30 06:57 51.88754 4.06766 9645 ft 248 kts 62°
2026-04-30 06:57 51.89672 4.09125 9359 ft 246 kts 62°
2026-04-30 06:57 51.90581 4.11461 9093 ft 243 kts 62°
2026-04-30 06:58 51.91544 4.13694 8794 ft 241 kts 51°
2026-04-30 06:58 51.92806 4.15545 8554 ft 248 kts 44°
2026-04-30 06:58 51.94182 4.17324 8295 ft 256 kts 43°
2026-04-30 06:58 51.95570 4.19096 8012 ft 258 kts 43°
2026-04-30 06:59 51.96980 4.20904 7690 ft 258 kts 44°
2026-04-30 06:59 51.98387 4.22722 7380 ft 257 kts 44°
2026-04-30 06:59 51.99780 4.24536 7084 ft 256 kts 44°
2026-04-30 06:59 52.01166 4.26352 6810 ft 255 kts 44°
2026-04-30 07:00 52.02542 4.28162 6510 ft 254 kts 44°
2026-04-30 07:00 52.03906 4.29962 6209 ft 252 kts 44°
2026-04-30 07:00 52.05246 4.31734 5930 ft 251 kts 45°
2026-04-30 07:00 52.06590 4.33516 5654 ft 249 kts 45°
2026-04-30 07:01 52.07930 4.35296 5391 ft 247 kts 45°
2026-04-30 07:01 52.09259 4.37062 5123 ft 246 kts 45°
2026-04-30 07:01 52.10581 4.38819 4744 ft 246 kts 45°
2026-04-30 07:01 52.11892 4.40567 4336 ft 240 kts 45°
2026-04-30 07:02 52.13160 4.42255 4044 ft 230 kts 46°
2026-04-30 07:02 52.14361 4.43859 3738 ft 222 kts 46°
2026-04-30 07:02 52.15538 4.45429 3393 ft 217 kts 46°
2026-04-30 07:02 52.16696 4.46978 3116 ft 212 kts 47°
2026-04-30 07:03 52.17811 4.48469 3020 ft 203 kts 47°
2026-04-30 07:03 52.18882 4.49898 2896 ft 194 kts 47°
2026-04-30 07:03 52.19901 4.51256 2836 ft 180 kts 49°
2026-04-30 07:03 52.20711 4.52729 2805 ft 174 kts 61°
2026-04-30 07:04 52.21407 4.54333 2704 ft 170 kts 63°
2026-04-30 07:04 52.22047 4.55934 2547 ft 168 kts 64°
2026-04-30 07:04 52.22658 4.57497 2353 ft 156 kts 65°
2026-04-30 07:04 52.23215 4.58940 2140 ft 147 kts 66°
2026-04-30 07:05 52.24289 4.61731 1728 ft 144 kts 66°
2026-04-30 07:05 52.24822 4.63115 1533 ft 143 kts 65°
2026-04-30 07:05 52.25350 4.64488 1353 ft 143 kts 66°
2026-04-30 07:06 52.25867 4.65825 1154 ft 135 kts 66°
2026-04-30 07:06 52.26356 4.67094 959 ft 130 kts 66°
2026-04-30 07:06 52.26833 4.68338 801 ft 129 kts 66°
2026-04-30 07:06 52.27315 4.69591 670 ft 133 kts 63°
2026-04-30 07:07 52.27816 4.70886 445 ft 136 kts 64°
2026-04-30 07:07 52.28316 4.72172 249 ft 129 kts 61°
2026-04-30 07:07 52.28794 4.73413 87 ft 131 kts 62°
2026-04-30 07:07 52.29269 4.74658 6 ft 120 kts 57°
2026-04-30 07:08 52.29620 4.75567 3 ft 69 kts 58°
2026-04-30 07:08 52.29822 4.76102 0 ft 49 kts 58°
2026-04-30 07:08 52.29968 4.76457 2 ft 25 kts 47°
2026-04-30 07:08 52.30109 4.76608 3 ft 24 kts 27°
2026-04-30 07:09 52.30229 4.76712 3 ft 14 kts 28°
2026-04-30 07:09 52.30305 4.76809 3 ft 14 kts 54°
2026-04-30 07:09 52.30359 4.76945 3 ft 14 kts 57°
2026-04-30 07:09 52.30412 4.77082 3 ft 14 kts 58°
2026-04-30 07:10 52.30464 4.77219 3 ft 14 kts 58°
2026-04-30 07:10 52.30516 4.77354 3 ft 14 kts 58°
2026-04-30 07:10 52.30569 4.77490 5 ft 14 kts 56°
2026-04-30 07:10 52.30647 4.77581 3 ft 14 kts 14°
2026-04-30 07:11 52.30746 4.77595 3 ft 14 kts
2026-04-30 07:11 52.30844 4.77605 3 ft 14 kts
2026-04-30 07:11 52.30943 4.77615 3 ft 14 kts
2026-04-30 07:11 52.31041 4.77623 3 ft 14 kts
2026-04-30 07:12 52.31139 4.77632 3 ft 14 kts
2026-04-30 07:12 52.31229 4.77641 3 ft 10 kts
2026-04-30 07:12 52.31279 4.77579 3 ft 10 kts 285°
2026-04-30 07:12 52.31286 4.77464 3 ft 10 kts 274°
2026-04-30 07:13 52.31290 4.77350 3 ft 10 kts 273°
2026-04-30 07:13 52.31293 4.77235 3 ft 10 kts 273°
2026-04-30 07:13 52.31296 4.77134 3 ft 7 kts 274°
2026-04-30 07:13 52.31314 4.77057 3 ft 7 kts 299°
2026-04-30 07:14 52.31334 4.77003 3 ft 4 kts 303°
2026-04-30 07:14 52.31344 4.76979 3 ft 1 kts 303°